Ejercicio Fecha de inicio del periodo que se informa Fecha de término del periodo que se informa Descripción del bien Código de identificación, en su caso Institución a cargo del bien mueble, en su caso Número de inventario Monto unitario del bien Área(s) responsable(s) que genera(n), posee(n), publica(n) y actualizan la información Fecha de validación Fecha de actualización Nota
2018 7/2/2018 30/09/2018 EQ. AIRE ACONDICIONADO 4 TONELADAS COMISIÓN ESTATAL DE ENERGÍA DE BAJA CALIFORNIA CEE-ACON-502-564001-2 27,856.31 SUBDIRECCIÓN DE ADMINISTRACIÓN 10/2/2018 9/30/2018
2018 7/2/2018 30/09/2018 1 MINISPLIT COMISIÓN ESTATAL DE ENERGÍA DE BAJA CALIFORNIA CEE-ACON-503-564001-3 10,998.27 SUBDIRECCIÓN DE ADMINISTRACIÓN 10/2/2018 9/30/2018
2018 7/2/2018 30/09/2018 REFRIGERACION DE 5 TON COMISIÓN ESTATAL DE ENERGÍA DE BAJA CALIFORNIA CEE-ACON-503-564001-5 104,118.72 SUBDIRECCIÓN DE ADMINISTRACIÓN 10/2/2018 9/30/2018
2018 7/2/2018 30/09/2018 REFRIGERACION DE 5 TON COMISIÓN ESTATAL DE ENERGÍA DE BAJA CALIFORNIA CEE-ACON-503-564001-6 104,118.72 SUBDIRECCIÓN DE ADMINISTRACIÓN 10/2/2018 9/30/2018
2018 7/2/2018 30/09/2018 AIRE ACONDICIONADO 4 TONELADAS COMISIÓN ESTATAL DE ENERGÍA DE BAJA CALIFORNIA CEE-ACON-503-564001-7 28,270.00 SUBDIRECCIÓN DE ADMINISTRACIÓN 10/2/2018 9/30/2018
2018 7/2/2018 30/09/2018 AIRE ACONDICIONADO 4 TONELADAS COMISIÓN ESTATAL DE ENERGÍA DE BAJA CALIFORNIA CEE-ACON-503-564001-8 40,000.00 SUBDIRECCIÓN DE ADMINISTRACIÓN 10/2/2018 9/30/2018
2018 7/2/2018 30/09/2018 FRIGOBAR MINI BAR COMISIÓN ESTATAL DE ENERGÍA DE BAJA CALIFORNIA CEE-COCI-501-519001-2 2,379.00 SUBDIRECCIÓN DE ADMINISTRACIÓN 10/2/2018 9/30/2018
2018 7/2/2018 30/09/2018 FRIGOBAR COMISIÓN ESTATAL DE ENERGÍA DE BAJA CALIFORNIA CEE-COCI-503-519001-1 1,650.00 SUBDIRECCIÓN DE ADMINISTRACIÓN 10/2/2018 9/30/2018
2018 7/2/2018 30/09/2018 REFRIGERADOR COMISIÓN ESTATAL DE ENERGÍA DE BAJA CALIFORNIA CEE-COCI-503-519001-3 3,729.00 SUBDIRECCIÓN DE ADMINISTRACIÓN 10/2/2018 9/30/2018
2018 7/2/2018 30/09/2018 PORTA GARRAFON COMISIÓN ESTATAL DE ENERGÍA DE BAJA CALIFORNIA CEE-COCI-503-519001-5 2,499.00 SUBDIRECCIÓN DE ADMINISTRACIÓN 10/2/2018 9/30/2018
2018 7/2/2018 30/09/2018 COCINETA ALDER BLANCO Y CAOBA COMISIÓN ESTATAL DE ENERGÍA DE BAJA CALIFORNIA CEE-COCI-503-519001-7 18,804.77 SUBDIRECCIÓN DE ADMINISTRACIÓN 10/2/2018 9/30/2018
2018 7/2/2018 30/09/2018 MICROGRABADORA DIGITAL COMISIÓN ESTATAL DE ENERGÍA DE BAJA CALIFORNIA CEE-COMU-501-521001-18 2,199.00 SUBDIRECCIÓN DE ADMINISTRACIÓN 10/2/2018 9/30/2018
2018 7/2/2018 30/09/2018 TELEFONO MULTILINEA C/MANOS LIBRES COMISIÓN ESTATAL DE ENERGÍA DE BAJA CALIFORNIA CEE-COMU-501-565001-1 1,432.20 SUBDIRECCIÓN DE ADMINISTRACIÓN 10/2/2018 9/30/2018
2018 7/2/2018 30/09/2018 TELEFONO MULTILINEA C/MANOS LIBRES COMISIÓN ESTATAL DE ENERGÍA DE BAJA CALIFORNIA CEE-COMU-501-565001-16 1,432.20 SUBDIRECCIÓN DE ADMINISTRACIÓN 10/2/2018 9/30/2018
2018 7/2/2018 30/09/2018 ESTUCHE LOWEPRO APEX 110AW TARJETA SANDISK 8GB, TRIPIE SOLIDEX TR-9 CAMARA DIGITAL COMISIÓN ESTATAL DE ENERGÍA DE BAJA CALIFORNIA CEE-COMU-502-523001-17 4,845.99 SUBDIRECCIÓN DE ADMINISTRACIÓN 10/2/2018 9/30/2018
2018 7/2/2018 30/09/2018 PANTALLA 60 LCD INCLUYE SOPORTE COMISIÓN ESTATAL DE ENERGÍA DE BAJA CALIFORNIA CEE-COMU-503-521001-21 27,298.99 SUBDIRECCIÓN DE ADMINISTRACIÓN 10/2/2018 9/30/2018
2018 7/2/2018 30/09/2018 FUENTE DE PODER MARCA ASTRON DE 12 AMP. COMISIÓN ESTATAL DE ENERGÍA DE BAJA CALIFORNIA CEE-COMU-503-521001-22 1,736.50 SUBDIRECCIÓN DE ADMINISTRACIÓN 10/2/2018 9/30/2018
2018 7/2/2018 30/09/2018 RADIO MOVIL VHF COMISIÓN ESTATAL DE ENERGÍA DE BAJA CALIFORNIA CEE-COMU-503-521001-23 4,045.50 SUBDIRECCIÓN DE ADMINISTRACIÓN 10/2/2018 9/30/2018
2018 7/2/2018 30/09/2018 BOCINA PARA COMPUTADOR COMISIÓN ESTATAL DE ENERGÍA DE BAJA CALIFORNIA CEE-COMU-503-521001-24 2,990.01 SUBDIRECCIÓN DE ADMINISTRACIÓN 10/2/2018 9/30/2018
2018 7/2/2018 30/09/2018 MICROFONO INHALAMBRICO COMISIÓN ESTATAL DE ENERGÍA DE BAJA CALIFORNIA CEE-COMU-503-521001-25 780.01 SUBDIRECCIÓN DE ADMINISTRACIÓN 10/2/2018 9/30/2018
2018 7/2/2018 30/09/2018 STAND PARA BAFLES COMISIÓN ESTATAL DE ENERGÍA DE BAJA CALIFORNIA CEE-COMU-503-521001-26 430.00 SUBDIRECCIÓN DE ADMINISTRACIÓN 10/2/2018 9/30/2018
2018 7/2/2018 30/09/2018 EQUIPO DE SONIDO COMISIÓN ESTATAL DE ENERGÍA DE BAJA CALIFORNIA CEE-COMU-503-521001-27 3,188.22 SUBDIRECCIÓN DE ADMINISTRACIÓN 10/2/2018 9/30/2018
2018 7/2/2018 30/09/2018 STAND PARA EVENTOS COMISIÓN ESTATAL DE ENERGÍA DE BAJA CALIFORNIA CEE-COMU-503-521001-28 10,449.54 SUBDIRECCIÓN DE ADMINISTRACIÓN 10/2/2018 9/30/2018
2018 7/2/2018 30/09/2018 CAMARA FOTOGRAFICA DIGITAL COMISIÓN ESTATAL DE ENERGÍA DE BAJA CALIFORNIA CEE-COMU-503-523001-20 3,399.00 SUBDIRECCIÓN DE ADMINISTRACIÓN 10/2/2018 9/30/2018
2018 7/2/2018 30/09/2018 SWITCH TPLINK DE 8 PUERTOS COMISIÓN ESTATAL DE ENERGÍA DE BAJA CALIFORNIA CEE-COMU-503-565001-11 1,130.24 SUBDIRECCIÓN DE ADMINISTRACIÓN 10/2/2018 9/30/2018
2018 7/2/2018 30/09/2018 CENTRAL 3X8 C/SOFTWARE PROG. DE SISTEMA TARIFICACION Y CONTROL DE LLAMADAS COMISIÓN ESTATAL DE ENERGÍA DE BAJA CALIFORNIA CEE-COMU-503-565001-12 8,776.46 SUBDIRECCIÓN DE ADMINISTRACIÓN 10/2/2018 9/30/2018
2018 7/2/2018 30/09/2018 TARJETA 3 LINEAS HIBRIDA 8 EXT. P/AMPLIAR LA CENTRAL COMISIÓN ESTATAL DE ENERGÍA DE BAJA CALIFORNIA CEE-COMU-503-565001-13 4,274.80 SUBDIRECCIÓN DE ADMINISTRACIÓN 10/2/2018 9/30/2018
2018 7/2/2018 30/09/2018 EQ. COMUNICACIÓN POWEREDGE R710 RACK COMISIÓN ESTATAL DE ENERGÍA DE BAJA CALIFORNIA CEE-COMU-503-565001-14 95,719.13 SUBDIRECCIÓN DE ADMINISTRACIÓN 10/2/2018 9/30/2018
2018 7/2/2018 30/09/2018 2 RADIOS PORTATILES NUEVO COMPLETO EN VHF136-174MHZ CON SISTEMA FLEETSYNC MDC 1200 INCLUYE ANTENA BATERIAS COMISIÓN ESTATAL DE ENERGÍA DE BAJA CALIFORNIA CEE-COMU-503-565001-19 6,956.40 SUBDIRECCIÓN DE ADMINISTRACIÓN 10/2/2018 9/30/2018
2018 7/2/2018 30/09/2018 MEDIDOR DE NIVEL DE RUIDO COMISIÓN ESTATAL DE ENERGÍA DE BAJA CALIFORNIA CEE-COMU-503-565001-5 2,137.86 SUBDIRECCIÓN DE ADMINISTRACIÓN 10/2/2018 9/30/2018
2018 7/2/2018 30/09/2018 2 RADIOS DE FRECUENCIA CORTA COMISIÓN ESTATAL DE ENERGÍA DE BAJA CALIFORNIA CEE-COMU-503-565001-6 1,399.00 SUBDIRECCIÓN DE ADMINISTRACIÓN 10/2/2018 9/30/2018
2018 7/2/2018 30/09/2018 ANEMOMETRO ESTAC. METEOROLOGICA COMISIÓN ESTATAL DE ENERGÍA DE BAJA CALIFORNIA CEE-COMU-503-565001-7 4,802.59 SUBDIRECCIÓN DE ADMINISTRACIÓN 10/2/2018 9/30/2018
2018 7/2/2018 30/09/2018 GPS SOFTWARE Y ACCESORIOS COMISIÓN ESTATAL DE ENERGÍA DE BAJA CALIFORNIA CEE-COMU-503-565001-8 9,335.70 SUBDIRECCIÓN DE ADMINISTRACIÓN 10/2/2018 9/30/2018
2018 7/2/2018 30/09/2018 TELEFONO INALAMBRICO DE 2.4 GHZ. COMISIÓN ESTATAL DE ENERGÍA DE BAJA CALIFORNIA CEE-COMU-503-565001-9 655.70 SUBDIRECCIÓN DE ADMINISTRACIÓN 10/2/2018 9/30/2018
2018 7/2/2018 30/09/2018 TELEVISIÓN 50 PULGADAS COMISIÓN ESTATAL DE ENERGÍA DE BAJA CALIFORNIA CEE-EER-502-521001-1 10,399.00 SUBDIRECCIÓN DE ADMINISTRACIÓN 10/2/2018 9/30/2018
2018 7/2/2018 30/09/2018 CAMARA FOTOGRAFICA NIKON COMISIÓN ESTATAL DE ENERGÍA DE BAJA CALIFORNIA CEE-EER-502-523001-2 8,499.00 SUBDIRECCIÓN DE ADMINISTRACIÓN 10/2/2018 9/30/2018
2018 7/2/2018 30/09/2018 LENTE DE CAMARA NIKON COMISIÓN ESTATAL DE ENERGÍA DE BAJA CALIFORNIA CEE-EER-502-523001-3 5,205.52 SUBDIRECCIÓN DE ADMINISTRACIÓN 10/2/2018 9/30/2018
2018 7/2/2018 30/09/2018 REGULADOR DE CORRIENTE COMISIÓN ESTATAL DE ENERGÍA DE BAJA CALIFORNIA CEE-ELEC-501-566001-2 1,449.00 SUBDIRECCIÓN DE ADMINISTRACIÓN 10/2/2018 9/30/2018
2018 7/2/2018 30/09/2018 2 SERVIDOR MAESTRO COMISIÓN ESTATAL DE ENERGÍA DE BAJA CALIFORNIA CEE-ELEC-503-566001-10 1,466,779.32 SUBDIRECCIÓN DE ADMINISTRACIÓN 10/2/2018 9/30/2018
2018 7/2/2018 30/09/2018 PANEL SOLAR FOTOVOLTAICO DE SILICIO MONOCRISTALINO COMISIÓN ESTATAL DE ENERGÍA DE BAJA CALIFORNIA CEE-ELEC-503-566001-11 9,233.00 SUBDIRECCIÓN DE ADMINISTRACIÓN 10/2/2018 9/30/2018
2018 7/2/2018 30/09/2018 PANEL SOLAR FOTOVOLTAICO DE SILICIO MONOCRISTALINO COMISIÓN ESTATAL DE ENERGÍA DE BAJA CALIFORNIA CEE-ELEC-503-566001-12 9,233.00 SUBDIRECCIÓN DE ADMINISTRACIÓN 10/2/2018 9/30/2018
2018 7/2/2018 30/09/2018 PANEL SOLAR FOTOVOLTAICO DE SILICIO MONOCRISTALINO COMISIÓN ESTATAL DE ENERGÍA DE BAJA CALIFORNIA CEE-ELEC-503-566001-13 9,233.00 SUBDIRECCIÓN DE ADMINISTRACIÓN 10/2/2018 9/30/2018
2018 7/2/2018 30/09/2018 PANEL SOLAR FOTOVOLTAICO DE SILICIO MONOCRISTALINO COMISIÓN ESTATAL DE ENERGÍA DE BAJA CALIFORNIA CEE-ELEC-503-566001-14 9,233.00 SUBDIRECCIÓN DE ADMINISTRACIÓN 10/2/2018 9/30/2018
2018 7/2/2018 30/09/2018 PANEL SOLAR FOTOVOLTAICO DE SILICIO MONOCRISTALINO COMISIÓN ESTATAL DE ENERGÍA DE BAJA CALIFORNIA CEE-ELEC-503-566001-15 9,233.00 SUBDIRECCIÓN DE ADMINISTRACIÓN 10/2/2018 9/30/2018
2018 7/2/2018 30/09/2018 PANEL SOLAR FOTOVOLTAICO DE SILICIO MONOCRISTALINO COMISIÓN ESTATAL DE ENERGÍA DE BAJA CALIFORNIA CEE-ELEC-503-566001-16 9,233.00 SUBDIRECCIÓN DE ADMINISTRACIÓN 10/2/2018 9/30/2018
2018 7/2/2018 30/09/2018 INVERSOR COMISIÓN ESTATAL DE ENERGÍA DE BAJA CALIFORNIA CEE-ELEC-503-566001-17 18,980.00 SUBDIRECCIÓN DE ADMINISTRACIÓN 10/2/2018 9/30/2018
2018 7/2/2018 30/09/2018 INVERSOR COMISIÓN ESTATAL DE ENERGÍA DE BAJA CALIFORNIA CEE-ELEC-503-566001-18 18,980.00 SUBDIRECCIÓN DE ADMINISTRACIÓN 10/2/2018 9/30/2018
2018 7/2/2018 30/09/2018 PANEL SOLAR FOTOVOLTAICO DE SILICIO MONOCRISTALINO COMISIÓN ESTATAL DE ENERGÍA DE BAJA CALIFORNIA CEE-ELEC-503-566001-19 9,233.00 SUBDIRECCIÓN DE ADMINISTRACIÓN 10/2/2018 9/30/2018
2018 7/2/2018 30/09/2018 PANEL SOLAR FOTOVOLTAICO DE SILICIO MONOCRISTALINO COMISIÓN ESTATAL DE ENERGÍA DE BAJA CALIFORNIA CEE-ELEC-503-566001-20 9,233.00 SUBDIRECCIÓN DE ADMINISTRACIÓN 10/2/2018 9/30/2018
2018 7/2/2018 30/09/2018 PANEL SOLAR FOTOVOLTAICO DE SILICIO MONOCRISTALINO COMISIÓN ESTATAL DE ENERGÍA DE BAJA CALIFORNIA CEE-ELEC-503-566001-21 9,233.00 SUBDIRECCIÓN DE ADMINISTRACIÓN 10/2/2018 9/30/2018
2018 7/2/2018 30/09/2018 PANEL SOLAR FOTOVOLTAICO DE SILICIO MONOCRISTALINO COMISIÓN ESTATAL DE ENERGÍA DE BAJA CALIFORNIA CEE-ELEC-503-566001-22 9,233.00 SUBDIRECCIÓN DE ADMINISTRACIÓN 10/2/2018 9/30/2018
2018 7/2/2018 30/09/2018 PANEL SOLAR FOTOVOLTAICO DE SILICIO MONOCRISTALINO COMISIÓN ESTATAL DE ENERGÍA DE BAJA CALIFORNIA CEE-ELEC-503-566001-23 9,233.00 SUBDIRECCIÓN DE ADMINISTRACIÓN 10/2/2018 9/30/2018
2018 7/2/2018 30/09/2018 PANEL SOLAR FOTOVOLTAICO DE SILICIO MONOCRISTALINO COMISIÓN ESTATAL DE ENERGÍA DE BAJA CALIFORNIA CEE-ELEC-503-566001-24 9,233.00 SUBDIRECCIÓN DE ADMINISTRACIÓN 10/2/2018 9/30/2018
2018 7/2/2018 30/09/2018 PANEL SOLAR FOTOVOLTAICO DE SILICIO MONOCRISTALINO COMISIÓN ESTATAL DE ENERGÍA DE BAJA CALIFORNIA CEE-ELEC-503-566001-25 9,233.00 SUBDIRECCIÓN DE ADMINISTRACIÓN 10/2/2018 9/30/2018
2018 7/2/2018 30/09/2018 PANEL SOLAR FOTOVOLTAICO DE SILICIO MONOCRISTALINO COMISIÓN ESTATAL DE ENERGÍA DE BAJA CALIFORNIA CEE-ELEC-503-566001-26 9,233.00 SUBDIRECCIÓN DE ADMINISTRACIÓN 10/2/2018 9/30/2018
2018 7/2/2018 30/09/2018 PANEL SOLAR FOTOVOLTAICO DE SILICIO MONOCRISTALINO COMISIÓN ESTATAL DE ENERGÍA DE BAJA CALIFORNIA CEE-ELEC-503-566001-27 9,233.00 SUBDIRECCIÓN DE ADMINISTRACIÓN 10/2/2018 9/30/2018
2018 7/2/2018 30/09/2018 PANEL SOLAR FOTOVOLTAICO DE SILICIO MONOCRISTALINO COMISIÓN ESTATAL DE ENERGÍA DE BAJA CALIFORNIA CEE-ELEC-503-566001-28 9,233.00 SUBDIRECCIÓN DE ADMINISTRACIÓN 10/2/2018 9/30/2018
2018 7/2/2018 30/09/2018 PANEL SOLAR FOTOVOLTAICO DE SILICIO MONOCRISTALINO COMISIÓN ESTATAL DE ENERGÍA DE BAJA CALIFORNIA CEE-ELEC-503-566001-29 9,233.00 SUBDIRECCIÓN DE ADMINISTRACIÓN 10/2/2018 9/30/2018
2018 7/2/2018 30/09/2018 AMPERIMETRO FLUKE 336 COMISIÓN ESTATAL DE ENERGÍA DE BAJA CALIFORNIA CEE-ELEC-503-566001-3 4,434.98 SUBDIRECCIÓN DE ADMINISTRACIÓN 10/2/2018 9/30/2018
2018 7/2/2018 30/09/2018 PANEL SOLAR FOTOVOLTAICO DE SILICIO MONOCRISTALINO COMISIÓN ESTATAL DE ENERGÍA DE BAJA CALIFORNIA CEE-ELEC-503-566001-30 9,233.00 SUBDIRECCIÓN DE ADMINISTRACIÓN 10/2/2018 9/30/2018
2018 7/2/2018 30/09/2018 PANEL SOLAR FOTOVOLTAICO DE SILICIO MONOCRISTALINO COMISIÓN ESTATAL DE ENERGÍA DE BAJA CALIFORNIA CEE-ELEC-503-566001-31 9,233.00 SUBDIRECCIÓN DE ADMINISTRACIÓN 10/2/2018 9/30/2018
2018 7/2/2018 30/09/2018 PANEL SOLAR FOTOVOLTAICO DE SILICIO MONOCRISTALINO COMISIÓN ESTATAL DE ENERGÍA DE BAJA CALIFORNIA CEE-ELEC-503-566001-32 9,233.00 SUBDIRECCIÓN DE ADMINISTRACIÓN 10/2/2018 9/30/2018
2018 7/2/2018 30/09/2018 PANEL SOLAR FOTOVOLTAICO DE SILICIO MONOCRISTALINO COMISIÓN ESTATAL DE ENERGÍA DE BAJA CALIFORNIA CEE-ELEC-503-566001-33 9,233.00 SUBDIRECCIÓN DE ADMINISTRACIÓN 10/2/2018 9/30/2018
2018 7/2/2018 30/09/2018 PANEL SOLAR FOTOVOLTAICO DE SILICIO MONOCRISTALINO COMISIÓN ESTATAL DE ENERGÍA DE BAJA CALIFORNIA CEE-ELEC-503-566001-34 9,233.00 SUBDIRECCIÓN DE ADMINISTRACIÓN 10/2/2018 9/30/2018
2018 7/2/2018 30/09/2018 PANEL SOLAR FOTOVOLTAICO DE SILICIO MONOCRISTALINO COMISIÓN ESTATAL DE ENERGÍA DE BAJA CALIFORNIA CEE-ELEC-503-566001-35 9,233.00 SUBDIRECCIÓN DE ADMINISTRACIÓN 10/2/2018 9/30/2018
2018 7/2/2018 30/09/2018 PANEL SOLAR FOTOVOLTAICO DE SILICIO MONOCRISTALINO COMISIÓN ESTATAL DE ENERGÍA DE BAJA CALIFORNIA CEE-ELEC-503-566001-36 9,233.00 SUBDIRECCIÓN DE ADMINISTRACIÓN 10/2/2018 9/30/2018
2018 7/2/2018 30/09/2018 PANEL SOLAR FOTOVOLTAICO DE SILICIO MONOCRISTALINO COMISIÓN ESTATAL DE ENERGÍA DE BAJA CALIFORNIA CEE-ELEC-503-566001-37 9,233.00 SUBDIRECCIÓN DE ADMINISTRACIÓN 10/2/2018 9/30/2018
2018 7/2/2018 30/09/2018 PANEL SOLAR FOTOVOLTAICO DE SILICIO MONOCRISTALINO COMISIÓN ESTATAL DE ENERGÍA DE BAJA CALIFORNIA CEE-ELEC-503-566001-38 9,233.00 SUBDIRECCIÓN DE ADMINISTRACIÓN 10/2/2018 9/30/2018
2018 7/2/2018 30/09/2018 PANEL SOLAR FOTOVOLTAICO DE SILICIO MONOCRISTALINO COMISIÓN ESTATAL DE ENERGÍA DE BAJA CALIFORNIA CEE-ELEC-503-566001-39 9,233.00 SUBDIRECCIÓN DE ADMINISTRACIÓN 10/2/2018 9/30/2018
2018 7/2/2018 30/09/2018 REGULADOR DE CORRIENTE COMISIÓN ESTATAL DE ENERGÍA DE BAJA CALIFORNIA CEE-ELEC-503-566001-4 1,449.00 SUBDIRECCIÓN DE ADMINISTRACIÓN 10/2/2018 9/30/2018
2018 7/2/2018 30/09/2018 PANEL SOLAR FOTOVOLTAICO DE SILICIO MONOCRISTALINO COMISIÓN ESTATAL DE ENERGÍA DE BAJA CALIFORNIA CEE-ELEC-503-566001-40 9,233.00 SUBDIRECCIÓN DE ADMINISTRACIÓN 10/2/2018 9/30/2018
2018 7/2/2018 30/09/2018 PANEL SOLAR FOTOVOLTAICO DE SILICIO MONOCRISTALINO COMISIÓN ESTATAL DE ENERGÍA DE BAJA CALIFORNIA CEE-ELEC-503-566001-41 9,233.00 SUBDIRECCIÓN DE ADMINISTRACIÓN 10/2/2018 9/30/2018
2018 7/2/2018 30/09/2018 PANEL SOLAR FOTOVOLTAICO DE SILICIO MONOCRISTALINO COMISIÓN ESTATAL DE ENERGÍA DE BAJA CALIFORNIA CEE-ELEC-503-566001-42 9,233.00 SUBDIRECCIÓN DE ADMINISTRACIÓN 10/2/2018 9/30/2018
2018 7/2/2018 30/09/2018 INVERSOR COMISIÓN ESTATAL DE ENERGÍA DE BAJA CALIFORNIA CEE-ELEC-503-566001-43 18,980.00 SUBDIRECCIÓN DE ADMINISTRACIÓN 10/2/2018 9/30/2018
2018 7/2/2018 30/09/2018 INVERSOR COMISIÓN ESTATAL DE ENERGÍA DE BAJA CALIFORNIA CEE-ELEC-503-566001-44 18,980.00 SUBDIRECCIÓN DE ADMINISTRACIÓN 10/2/2018 9/30/2018
2018 7/2/2018 30/09/2018 INVERSOR COMISIÓN ESTATAL DE ENERGÍA DE BAJA CALIFORNIA CEE-ELEC-503-566001-45 18,980.00 SUBDIRECCIÓN DE ADMINISTRACIÓN 10/2/2018 9/30/2018
2018 7/2/2018 30/09/2018 PLANTA DE ENERGIA SUMINISTRO E INSTALACION COMISIÓN ESTATAL DE ENERGÍA DE BAJA CALIFORNIA CEE-ELEC-503-566001-48 2,550,906.00 SUBDIRECCIÓN DE ADMINISTRACIÓN 10/2/2018 9/30/2018
2018 7/2/2018 30/09/2018 TRANSFORMADOR PUERTECITOS COMISIÓN ESTATAL DE ENERGÍA DE BAJA CALIFORNIA CEE-ELEC-503-566001-49 40,900.00 SUBDIRECCIÓN DE ADMINISTRACIÓN 10/2/2018 9/30/2018
2018 7/2/2018 30/09/2018 2 TABLEROS DE SERVICIO COMISIÓN ESTATAL DE ENERGÍA DE BAJA CALIFORNIA CEE-ELEC-503-566001-5 225,781.08 SUBDIRECCIÓN DE ADMINISTRACIÓN 10/2/2018 9/30/2018
2018 7/2/2018 30/09/2018 1 BANCO DE BATERIAS EN PER COMISIÓN ESTATAL DE ENERGÍA DE BAJA CALIFORNIA CEE-ELEC-503-566001-6 462,652.61 SUBDIRECCIÓN DE ADMINISTRACIÓN 10/2/2018 9/30/2018
2018 7/2/2018 30/09/2018 1 CARGADOR DE BATERIAS EN PER COMISIÓN ESTATAL DE ENERGÍA DE BAJA CALIFORNIA CEE-ELEC-503-566001-7 103,931.57 SUBDIRECCIÓN DE ADMINISTRACIÓN 10/2/2018 9/30/2018
2018 7/2/2018 30/09/2018 2 GABINETES TIPO METAL 1200 AMPS COMISIÓN ESTATAL DE ENERGÍA DE BAJA CALIFORNIA CEE-ELEC-503-566001-8 6,404,879.39 SUBDIRECCIÓN DE ADMINISTRACIÓN 10/2/2018 9/30/2018
2018 7/2/2018 30/09/2018 1 GENERADOR PROTECCION SIMPLEX DE 800 X COMISIÓN ESTATAL DE ENERGÍA DE BAJA CALIFORNIA CEE-ELEC-503-566001-9 2,294,747.66 SUBDIRECCIÓN DE ADMINISTRACIÓN 10/2/2018 9/30/2018
2018 7/2/2018 30/09/2018 SISTEMA RETRACTIL DBIREBEL POL 1" COMISIÓN ESTATAL DE ENERGÍA DE BAJA CALIFORNIA CEE-INDU-503-562001-1 6,438.00 SUBDIRECCIÓN DE ADMINISTRACIÓN 10/2/2018 9/30/2018
2018 7/2/2018 30/09/2018 1 CARABINERO DBI SALA TIPO PERA DE 21 COMISIÓN ESTATAL DE ENERGÍA DE BAJA CALIFORNIA CEE-INDU-503-562001-10 1,333.11 SUBDIRECCIÓN DE ADMINISTRACIÓN 10/2/2018 9/30/2018
2018 7/2/2018 30/09/2018 SOLMETRIC SUN EYE 210 SHADE TOOL COMISIÓN ESTATAL DE ENERGÍA DE BAJA CALIFORNIA CEE-INDU-503-562001-11 25,427.33 SUBDIRECCIÓN DE ADMINISTRACIÓN 10/2/2018 9/30/2018
2018 7/2/2018 30/09/2018 SISTEMA RETRACTIL DBIREBEL POL 1" COMISIÓN ESTATAL DE ENERGÍA DE BAJA CALIFORNIA CEE-INDU-503-562001-2 6,438.00 SUBDIRECCIÓN DE ADMINISTRACIÓN 10/2/2018 9/30/2018
2018 7/2/2018 30/09/2018 1 ARNES DBI SALA EXOFIT XP T-MED COMISIÓN ESTATAL DE ENERGÍA DE BAJA CALIFORNIA CEE-INDU-503-562001-3 3,605.28 SUBDIRECCIÓN DE ADMINISTRACIÓN 10/2/2018 9/30/2018
2018 7/2/2018 30/09/2018 1 ARNES DBI SALA EXOFIT XP T-MED COMISIÓN ESTATAL DE ENERGÍA DE BAJA CALIFORNIA CEE-INDU-503-562001-4 3,605.28 SUBDIRECCIÓN DE ADMINISTRACIÓN 10/2/2018 9/30/2018
2018 7/2/2018 30/09/2018 1 SISTEMA DE ANCLAJE P/USAR C/CABLE 3 COMISIÓN ESTATAL DE ENERGÍA DE BAJA CALIFORNIA CEE-INDU-503-562001-5 5,170.38 SUBDIRECCIÓN DE ADMINISTRACIÓN 10/2/2018 9/30/2018
2018 7/2/2018 30/09/2018 1 SISTEMA DE ANCLAJE P/USAR C/CABLE 3 COMISIÓN ESTATAL DE ENERGÍA DE BAJA CALIFORNIA CEE-INDU-503-562001-6 5,170.38 SUBDIRECCIÓN DE ADMINISTRACIÓN 10/2/2018 9/30/2018
2018 7/2/2018 30/09/2018 1 LINEA DE VIDA DBI SALA DOBLE CON AM COMISIÓN ESTATAL DE ENERGÍA DE BAJA CALIFORNIA CEE-INDU-503-562001-7 3,170.16 SUBDIRECCIÓN DE ADMINISTRACIÓN 10/2/2018 9/30/2018
2018 7/2/2018 30/09/2018 1 LINEA DE VIDA DBI SALA DOBLE CON AM COMISIÓN ESTATAL DE ENERGÍA DE BAJA CALIFORNIA CEE-INDU-503-562001-8 3,170.16 SUBDIRECCIÓN DE ADMINISTRACIÓN 10/2/2018 9/30/2018
2018 7/2/2018 30/09/2018 1 CARABINERO DBI SALA TIPO PERA DE 21 COMISIÓN ESTATAL DE ENERGÍA DE BAJA CALIFORNIA CEE-INDU-503-562001-9 1,333.11 SUBDIRECCIÓN DE ADMINISTRACIÓN 10/2/2018 9/30/2018
2018 7/2/2018 30/09/2018 LAPTOP LENOVO THINKPAD X301 2776-CORE 2 SERIE SL3AAT3T COMISIÓN ESTATAL DE ENERGÍA DE BAJA CALIFORNIA CEE-INFO- 501-515001-1 53,031.00 SUBDIRECCIÓN DE ADMINISTRACIÓN 10/2/2018 9/30/2018
2018 7/2/2018 30/09/2018 SERVIDOR DELL Y FIREWALL COMISIÓN ESTATAL DE ENERGÍA DE BAJA CALIFORNIA CEE-INFO- 501-515001-16 113,254.90 SUBDIRECCIÓN DE ADMINISTRACIÓN 10/2/2018 9/30/2018
2018 7/2/2018 30/09/2018 MONITOR 19 PULG. ACCER COMISIÓN ESTATAL DE ENERGÍA DE BAJA CALIFORNIA CEE-INFO- 501-515001-21 2,079.00 SUBDIRECCIÓN DE ADMINISTRACIÓN 10/2/2018 9/30/2018
2018 7/2/2018 30/09/2018 MONITOR 19 PULG. ACCER COMISIÓN ESTATAL DE ENERGÍA DE BAJA CALIFORNIA CEE-INFO- 501-515001-3 2,079.00 SUBDIRECCIÓN DE ADMINISTRACIÓN 10/2/2018 9/30/2018
2018 7/2/2018 30/09/2018 PROYECTOR NEC COMISIÓN ESTATAL DE ENERGÍA DE BAJA CALIFORNIA CEE-INFO- 501-521001-7 12,993.20 SUBDIRECCIÓN DE ADMINISTRACIÓN 10/2/2018 9/30/2018
2018 7/2/2018 30/09/2018 IMPRESORA MARCA HEWLETT PACKARD ,VELOCIDAD DE IMPRESION 12 PAG POR MIN COMISIÓN ESTATAL DE ENERGÍA DE BAJA CALIFORNIA CEE-INFO- 502-515001-2 5,999.00 SUBDIRECCIÓN DE ADMINISTRACIÓN 10/2/2018 9/30/2018
2018 7/2/2018 30/09/2018 COMPUTADORA DE ESCRITORIO MARCA DELL INSPIRON CON PROCESADOR INTEL PENTIUM E5400 COMISIÓN ESTATAL DE ENERGÍA DE BAJA CALIFORNIA CEE-INFO- 502-515001-23 13,651.89 SUBDIRECCIÓN DE ADMINISTRACIÓN 10/2/2018 9/30/2018
2018 7/2/2018 30/09/2018 COMPUTADORA DE ESCRITORIO MARCA DELL INSPIRON CON PROCESADOR INTEL PENTIUM E5400 COMISIÓN ESTATAL DE ENERGÍA DE BAJA CALIFORNIA CEE-INFO- 502-515001-24 13,651.89 SUBDIRECCIÓN DE ADMINISTRACIÓN 10/2/2018 9/30/2018
2018 7/2/2018 30/09/2018 COMPUTADORA PORTATIL (LAP-TOP) MARCA DELL INSPIRON COMISIÓN ESTATAL DE ENERGÍA DE BAJA CALIFORNIA CEE-INFO- 502-515001-25 11,779.32 SUBDIRECCIÓN DE ADMINISTRACIÓN 10/2/2018 9/30/2018
2018 7/2/2018 30/09/2018 SCANNER MARCA EPSON COMISIÓN ESTATAL DE ENERGÍA DE BAJA CALIFORNIA CEE-INFO- 502-515001-28 6,216.00 SUBDIRECCIÓN DE ADMINISTRACIÓN 10/2/2018 9/30/2018
2018 7/2/2018 30/09/2018 LAPTOP SONY VAIO 3 GB RAM 250 GB DISCO DURO C/SEGURO 3 AÑOS COMISIÓN ESTATAL DE ENERGÍA DE BAJA CALIFORNIA CEE-INFO- 503-515001-11 13,528.00 SUBDIRECCIÓN DE ADMINISTRACIÓN 10/2/2018 9/30/2018
2018 7/2/2018 30/09/2018 IMPRESORA MARCA HEWLETT PACKARD RESOLUCION DE IMPRSION 600X600 DPI COMISIÓN ESTATAL DE ENERGÍA DE BAJA CALIFORNIA CEE-INFO- 503-515001-12 3,199.00 SUBDIRECCIÓN DE ADMINISTRACIÓN 10/2/2018 9/30/2018
2018 7/2/2018 30/09/2018 SWITCH DE 24 PUERTOS COMISIÓN ESTATAL DE ENERGÍA DE BAJA CALIFORNIA CEE-INFO- 503-515001-15 1,262.25 SUBDIRECCIÓN DE ADMINISTRACIÓN 10/2/2018 9/30/2018
2018 7/2/2018 30/09/2018 LAPTOP SONY VAIO 3 GB RAM 250 GB DISCO DURO C/SEGURO 3 AÑOS COMISIÓN ESTATAL DE ENERGÍA DE BAJA CALIFORNIA CEE-INFO- 503-515001-27 13,528.00 SUBDIRECCIÓN DE ADMINISTRACIÓN 10/2/2018 9/30/2018
2018 7/2/2018 30/09/2018 LAP TOP ACER 4745-374 SN COMISIÓN ESTATAL DE ENERGÍA DE BAJA CALIFORNIA CEE-INFO-501-515001-29 8,999.00 SUBDIRECCIÓN DE ADMINISTRACIÓN 10/2/2018 9/30/2018
2018 7/2/2018 30/09/2018 LAP TOP RV510 SAMSUNG COMISIÓN ESTATAL DE ENERGÍA DE BAJA CALIFORNIA CEE-INFO-501-515001-32 8,658.00 SUBDIRECCIÓN DE ADMINISTRACIÓN 10/2/2018 9/30/2018
2018 7/2/2018 30/09/2018 SCANNER PARA TARJETAS PRESENTACION COMISIÓN ESTATAL DE ENERGÍA DE BAJA CALIFORNIA CEE-INFO-501-515001-31 1,802.70 SUBDIRECCIÓN DE ADMINISTRACIÓN 10/2/2018 9/30/2018
2018 7/2/2018 30/09/2018 PANTALLA ELO TOUCHSCREEN 15" COMISIÓN ESTATAL DE ENERGÍA DE BAJA CALIFORNIA CEE-INFO-501-515001-35 8,178.15 SUBDIRECCIÓN DE ADMINISTRACIÓN 10/2/2018 9/30/2018
2018 7/2/2018 30/09/2018 PANTALLA PLOLYVISION TS TOUCH COMISIÓN ESTATAL DE ENERGÍA DE BAJA CALIFORNIA CEE-INFO-501-515001-36 17,102.88 SUBDIRECCIÓN DE ADMINISTRACIÓN 10/2/2018 9/30/2018
2018 7/2/2018 30/09/2018 COMPUTADORA INDUSTRIAL PARA PER-DONATIVO COMISIÓN ESTATAL DE ENERGÍA DE BAJA CALIFORNIA CEE-INFO-501-515001-39 200,373.72 SUBDIRECCIÓN DE ADMINISTRACIÓN 10/2/2018 9/30/2018
2018 7/2/2018 30/09/2018 COMPUTADORA INDUSTRIAL PARA PER-DONATIVO COMISIÓN ESTATAL DE ENERGÍA DE BAJA CALIFORNIA CEE-INFO-501-515001-40 200,373.72 SUBDIRECCIÓN DE ADMINISTRACIÓN 10/2/2018 9/30/2018
2018 7/2/2018 30/09/2018 COMPUTADORA INDUSTRIAL PARA PER-DONATIVO COMISIÓN ESTATAL DE ENERGÍA DE BAJA CALIFORNIA CEE-INFO-501-515001-41 200,373.72 SUBDIRECCIÓN DE ADMINISTRACIÓN 10/2/2018 9/30/2018
2018 7/2/2018 30/09/2018 COMPUTADORA INDUSTRIAL PARA PER-DONATIVO COMISIÓN ESTATAL DE ENERGÍA DE BAJA CALIFORNIA CEE-INFO-501-515001-42 200,373.72 SUBDIRECCIÓN DE ADMINISTRACIÓN 10/2/2018 9/30/2018
2018 7/2/2018 30/09/2018 COMPUTADORA INDUSTRIAL PARA PER-DONATIVO COMISIÓN ESTATAL DE ENERGÍA DE BAJA CALIFORNIA CEE-INFO-501-515001-43 200,373.74 SUBDIRECCIÓN DE ADMINISTRACIÓN 10/2/2018 9/30/2018
2018 7/2/2018 30/09/2018 REGULADOR APC SMART UPS 2200VA USB COMISIÓN ESTATAL DE ENERGÍA DE BAJA CALIFORNIA CEE-INFO-501-566001-37 11,982.45 SUBDIRECCIÓN DE ADMINISTRACIÓN 10/2/2018 9/30/2018
2018 7/2/2018 30/09/2018 PANTALLA MONOCROMATICA ROJO COMISIÓN ESTATAL DE ENERGÍA DE BAJA CALIFORNIA CEE-INFO-501-566001-6 3,885.00 SUBDIRECCIÓN DE ADMINISTRACIÓN 10/2/2018 9/30/2018
2018 7/2/2018 30/09/2018 1 MEMORIA EXTERNA LACIE 2TB COMISIÓN ESTATAL DE ENERGÍA DE BAJA CALIFORNIA CEE-INFO-503-515001-38 2,899.00 SUBDIRECCIÓN DE ADMINISTRACIÓN 10/2/2018 9/30/2018
2018 7/2/2018 30/09/2018 LAPTOP TOSHIBA COMISIÓN ESTATAL DE ENERGÍA DE BAJA CALIFORNIA CEE-INFO-503-515001-46 12,972.57 SUBDIRECCIÓN DE ADMINISTRACIÓN 10/2/2018 9/30/2018
2018 7/2/2018 30/09/2018 IMPRESORA COMISIÓN ESTATAL DE ENERGÍA DE BAJA CALIFORNIA CEE-INFO-503-515001-47 31,455.18 SUBDIRECCIÓN DE ADMINISTRACIÓN 10/2/2018 9/30/2018
2018 7/2/2018 30/09/2018 LAPTOP ASUS INTEL CELERON COMISIÓN ESTATAL DE ENERGÍA DE BAJA CALIFORNIA CEE-INFO-503-515001-48 6,906.98 SUBDIRECCIÓN DE ADMINISTRACIÓN 10/2/2018 9/30/2018
2018 7/2/2018 30/09/2018 LAPTOP ASUS INTEL CELERON COMISIÓN ESTATAL DE ENERGÍA DE BAJA CALIFORNIA CEE-INFO-503-515001-49 6,906.98 SUBDIRECCIÓN DE ADMINISTRACIÓN 10/2/2018 9/30/2018
2018 7/2/2018 30/09/2018 COMPUTADORA HP 8 GB COMISIÓN ESTATAL DE ENERGÍA DE BAJA CALIFORNIA CEE-INFO-503-515001-50 15,000.00 SUBDIRECCIÓN DE ADMINISTRACIÓN 10/2/2018 9/30/2018
2018 7/2/2018 30/09/2018 COMPUTADORA DELL INSPIRON COMISIÓN ESTATAL DE ENERGÍA DE BAJA CALIFORNIA CEE-INFO-503-515001-51 8,395.61 SUBDIRECCIÓN DE ADMINISTRACIÓN 10/2/2018 9/30/2018
2018 7/2/2018 30/09/2018 COMPUTADORA DELL INSPIRON COMISIÓN ESTATAL DE ENERGÍA DE BAJA CALIFORNIA CEE-INFO-503-515001-52 8,395.61 SUBDIRECCIÓN DE ADMINISTRACIÓN 10/2/2018 9/30/2018
2018 7/2/2018 30/09/2018 COMPUTADORA, MONITOR COMISIÓN ESTATAL DE ENERGÍA DE BAJA CALIFORNIA CEE-INFO-503-515001-53 13,369.93 SUBDIRECCIÓN DE ADMINISTRACIÓN 10/2/2018 9/30/2018
2018 7/2/2018 30/09/2018 PROYECTOR INFOCUS COMISIÓN ESTATAL DE ENERGÍA DE BAJA CALIFORNIA CEE-INFO-503-515001-54 7,420.70 SUBDIRECCIÓN DE ADMINISTRACIÓN 10/2/2018 9/30/2018
2018 7/2/2018 30/09/2018 PROYECTOR NEGRO INFOCUS COMISIÓN ESTATAL DE ENERGÍA DE BAJA CALIFORNIA CEE-INFO-503-515001-55 7,100.00 SUBDIRECCIÓN DE ADMINISTRACIÓN 10/2/2018 9/30/2018
2018 7/2/2018 30/09/2018 COMPUTADORA Y MONITOR COMISIÓN ESTATAL DE ENERGÍA DE BAJA CALIFORNIA CEE-INFO-503-515001-56 14,572.00 SUBDIRECCIÓN DE ADMINISTRACIÓN 10/2/2018 9/30/2018
2018 7/2/2018 30/09/2018 COMPUTADORA Y MONITOR COMISIÓN ESTATAL DE ENERGÍA DE BAJA CALIFORNIA CEE-INFO-503-515001-57 14,572.00 SUBDIRECCIÓN DE ADMINISTRACIÓN 10/2/2018 9/30/2018
2018 7/2/2018 30/09/2018 COMPUTADORA Y MONITOR COMISIÓN ESTATAL DE ENERGÍA DE BAJA CALIFORNIA CEE-INFO-503-515001-58 11,018.00 SUBDIRECCIÓN DE ADMINISTRACIÓN 10/2/2018 9/30/2018
2018 7/2/2018 30/09/2018 COMPUTADORA Y MONITOR COMISIÓN ESTATAL DE ENERGÍA DE BAJA CALIFORNIA CEE-INFO-503-515001-59 11,018.00 SUBDIRECCIÓN DE ADMINISTRACIÓN 10/2/2018 9/30/2018
2018 7/2/2018 30/09/2018 MVP210 (SERVIDOR 3ER PISO) COMISIÓN ESTATAL DE ENERGÍA DE BAJA CALIFORNIA CEE-INFO-503-515001-60 13,574.78 SUBDIRECCIÓN DE ADMINISTRACIÓN 10/2/2018 9/30/2018
2018 7/2/2018 30/09/2018 COMPUTADORA DE ESCRITORIO COMISIÓN ESTATAL DE ENERGÍA DE BAJA CALIFORNIA CEE-INFO-503-515001-61 13,791.53 SUBDIRECCIÓN DE ADMINISTRACIÓN 10/2/2018 9/30/2018
2018 7/2/2018 30/09/2018 COMPUTADORA DE ESCRITORIO COMISIÓN ESTATAL DE ENERGÍA DE BAJA CALIFORNIA CEE-INFO-503-515001-62 13,791.53 SUBDIRECCIÓN DE ADMINISTRACIÓN 10/2/2018 9/30/2018
2018 7/2/2018 30/09/2018 COMPUTADORA DE ESCRITORIO COMISIÓN ESTATAL DE ENERGÍA DE BAJA CALIFORNIA CEE-INFO-503-515001-63 13,791.53 SUBDIRECCIÓN DE ADMINISTRACIÓN 10/2/2018 9/30/2018
2018 7/2/2018 30/09/2018 LAPTOP COMISIÓN ESTATAL DE ENERGÍA DE BAJA CALIFORNIA CEE-INFO-503-515001-64 20,102.87 SUBDIRECCIÓN DE ADMINISTRACIÓN 10/2/2018 9/30/2018
2018 7/2/2018 30/09/2018 TARJETA WACOM COMISIÓN ESTATAL DE ENERGÍA DE BAJA CALIFORNIA CEE-INFO-503-515001-65 2,731.80 SUBDIRECCIÓN DE ADMINISTRACIÓN 10/2/2018 9/30/2018
2018 7/2/2018 30/09/2018 CONVERTIDOR DE SEÑAL COMISIÓN ESTATAL DE ENERGÍA DE BAJA CALIFORNIA CEE-INFO-503-515001-66 3,223.47 SUBDIRECCIÓN DE ADMINISTRACIÓN 10/2/2018 9/30/2018
2018 7/2/2018 30/09/2018 IMPRESORA HP COLOR LASER PRO M277 COMISIÓN ESTATAL DE ENERGÍA DE BAJA CALIFORNIA CEE-INFO-503-515001-67 5,091.24 SUBDIRECCIÓN DE ADMINISTRACIÓN 10/2/2018 9/30/2018
2018 7/2/2018 30/09/2018 COMPUTADORA DE ESCRITORIO COMISIÓN ESTATAL DE ENERGÍA DE BAJA CALIFORNIA CEE-INFO-503-515001-68 15,892.00 SUBDIRECCIÓN DE ADMINISTRACIÓN 10/2/2018 9/30/2018
2018 7/2/2018 30/09/2018 COMPUTADORA DE ESCRITORIO COMISIÓN ESTATAL DE ENERGÍA DE BAJA CALIFORNIA CEE-INFO-503-515001-69 15,892.00 SUBDIRECCIÓN DE ADMINISTRACIÓN 10/2/2018 9/30/2018
2018 7/2/2018 30/09/2018 LAPTOP COMISIÓN ESTATAL DE ENERGÍA DE BAJA CALIFORNIA CEE-INFO-503-515001-70 25,668.83 SUBDIRECCIÓN DE ADMINISTRACIÓN 10/2/2018 9/30/2018
2018 7/2/2018 30/09/2018 LAPTOP DELL I5 COMISIÓN ESTATAL DE ENERGÍA DE BAJA CALIFORNIA CEE-INFO-503-515001-71 14,449.00 SUBDIRECCIÓN DE ADMINISTRACIÓN 10/2/2018 9/30/2018
2018 7/2/2018 30/09/2018 LAPTOP HP15, COLOR AZUL COMISIÓN ESTATAL DE ENERGÍA DE BAJA CALIFORNIA CEE-INFO-503-515001-72 12,999.00 SUBDIRECCIÓN DE ADMINISTRACIÓN 10/2/2018 9/30/2018
2018 7/2/2018 30/09/2018 IMPRESORA HP COLOR LASERJET PRO M277DW COMISIÓN ESTATAL DE ENERGÍA DE BAJA CALIFORNIA CEE-INFO-503-515001-73 5,439.24 SUBDIRECCIÓN DE ADMINISTRACIÓN 10/2/2018 9/30/2018
2018 7/2/2018 30/09/2018 DESKTOP HP PAVILION ALL-IN-ONE COMISIÓN ESTATAL DE ENERGÍA DE BAJA CALIFORNIA CEE-INFO-503-515001-74 11,000.01 SUBDIRECCIÓN DE ADMINISTRACIÓN 10/2/2018 9/30/2018
2018 7/2/2018 30/09/2018 COMPUTADORA DE ESCRITORIO LENOVO IDEACENTRE 720-18IKL 8 KG MEMORIA COMISIÓN ESTATAL DE ENERGÍA DE BAJA CALIFORNIA CEE-INFO-503-515001-75 15,648.40 SUBDIRECCIÓN DE ADMINISTRACIÓN 10/2/2018 9/30/2018
2018 7/2/2018 30/09/2018 COMPUTADORA DE ESCRITORIO LENOVO IDEACENTRE 720-18IKL 8 KG MEMORIA COMISIÓN ESTATAL DE ENERGÍA DE BAJA CALIFORNIA CEE-INFO-503-515001-76 15,648.40 SUBDIRECCIÓN DE ADMINISTRACIÓN 10/2/2018 9/30/2018
2018 7/2/2018 30/09/2018 MONITOR DELL 24, INFINITYEDGE S2418HN COMISIÓN ESTATAL DE ENERGÍA DE BAJA CALIFORNIA CEE-INFO-503-515001-77 4,350.00 SUBDIRECCIÓN DE ADMINISTRACIÓN 10/2/2018 9/30/2018
2018 7/2/2018 30/09/2018 MONITOR DELL 24, INFINITYEDGE S2418HN COMISIÓN ESTATAL DE ENERGÍA DE BAJA CALIFORNIA CEE-INFO-503-515001-78 4,350.00 SUBDIRECCIÓN DE ADMINISTRACIÓN 10/2/2018 9/30/2018
2018 7/2/2018 30/09/2018 SILLA DE VISITA TAPIZADA EN PIEL, CON BRAZOS, ESTRUCTURA METALICA TIPO TRINEO. COMISIÓN ESTATAL DE ENERGÍA DE BAJA CALIFORNIA CEE-OFIC-501-511001-10 1,342.95 SUBDIRECCIÓN DE ADMINISTRACIÓN 10/2/2018 9/30/2018
2018 7/2/2018 30/09/2018 SILLA DE VISITA TAPIZADA EN PIEL, CON BRAZOS, ESTRUCTURA METALICA TIPO TRINEO. COMISIÓN ESTATAL DE ENERGÍA DE BAJA CALIFORNIA CEE-OFIC-501-511001-11 1,342.95 SUBDIRECCIÓN DE ADMINISTRACIÓN 10/2/2018 9/30/2018
2018 7/2/2018 30/09/2018 SILLON RECLINABLE DE PIEL COLOR CAFÉ INDIVIDUAL. COMISIÓN ESTATAL DE ENERGÍA DE BAJA CALIFORNIA CEE-OFIC-501-511001-112 9,435.00 SUBDIRECCIÓN DE ADMINISTRACIÓN 10/2/2018 9/30/2018
2018 7/2/2018 30/09/2018 LIBRERO CHOCOLATE COMISIÓN ESTATAL DE ENERGÍA DE BAJA CALIFORNIA CEE-OFIC-501-511001-115 2,299.00 SUBDIRECCIÓN DE ADMINISTRACIÓN 10/2/2018 9/30/2018
2018 7/2/2018 30/09/2018 ASIENTO GIRATORIO DEL ALTURA COMISIÓN ESTATAL DE ENERGÍA DE BAJA CALIFORNIA CEE-OFIC-501-511001-118 5,217.00 SUBDIRECCIÓN DE ADMINISTRACIÓN 10/2/2018 9/30/2018
2018 7/2/2018 30/09/2018 SILLA DE VISITA TAPIZADA EN PIEL, CON BRAZOS, TIPO TRINEO. COMISIÓN ESTATAL DE ENERGÍA DE BAJA CALIFORNIA CEE-OFIC-501-511001-12 1,342.95 SUBDIRECCIÓN DE ADMINISTRACIÓN 10/2/2018 9/30/2018
2018 7/2/2018 30/09/2018 SILLA DE RECEPCION DIRECCION COMISIÓN ESTATAL DE ENERGÍA DE BAJA CALIFORNIA CEE-OFIC-501-511001-121 2,220.00 SUBDIRECCIÓN DE ADMINISTRACIÓN 10/2/2018 9/30/2018
2018 7/2/2018 30/09/2018 LIBRERO CHERRY CON PUERTAS COMISIÓN ESTATAL DE ENERGÍA DE BAJA CALIFORNIA CEE-OFIC-501-511001-123 2,499.00 SUBDIRECCIÓN DE ADMINISTRACIÓN 10/2/2018 9/30/2018
2018 7/2/2018 30/09/2018 SILLON EJECUTIVO NEUMATICO TAPIZADO EN PIEL CON DESCANSA BRAZOS, BASE DE 5 PUNTAS CON RUEDA COMISIÓN ESTATAL DE ENERGÍA DE BAJA CALIFORNIA CEE-OFIC-501-511001-13 1,530.33 SUBDIRECCIÓN DE ADMINISTRACIÓN 10/2/2018 9/30/2018
2018 7/2/2018 30/09/2018 JUEGO DE 4 PUERTAS PARA LIBRERO PROTOCOL CON MARCO LAMINADO Y VIDRIO OPACO COMISIÓN ESTATAL DE ENERGÍA DE BAJA CALIFORNIA CEE-OFIC-501-511001-16 917.16 SUBDIRECCIÓN DE ADMINISTRACIÓN 10/2/2018 9/30/2018
2018 7/2/2018 30/09/2018 LIBRERO PROTOCOL CON PUERTAS DE MADERA EN COLOR MAHOGANY DE 71" COMISIÓN ESTATAL DE ENERGÍA DE BAJA CALIFORNIA CEE-OFIC-501-511001-17 2,795.28 SUBDIRECCIÓN DE ADMINISTRACIÓN 10/2/2018 9/30/2018
2018 7/2/2018 30/09/2018 CREDENZA DE MADERA SIN CAJONES EN COLOR MAHOGANY MEDIDA DE 71X24/36" COMISIÓN ESTATAL DE ENERGÍA DE BAJA CALIFORNIA CEE-OFIC-501-511001-18 2,558.71 SUBDIRECCIÓN DE ADMINISTRACIÓN 10/2/2018 9/30/2018
2018 7/2/2018 30/09/2018 SILLON (LOVE SEAT) DE PIEL COLOR CAFÉ COMISIÓN ESTATAL DE ENERGÍA DE BAJA CALIFORNIA CEE-OFIC-501-511001-182 10,212.00 SUBDIRECCIÓN DE ADMINISTRACIÓN 10/2/2018 9/30/2018
2018 7/2/2018 30/09/2018 LOTE DE ELEMENTOS DECORATIVOS (BARCO,JARRON, GLOBO TERRAQUEO, LAMPARA) COMISIÓN ESTATAL DE ENERGÍA DE BAJA CALIFORNIA CEE-OFIC-501-511001-183 1,998.00 SUBDIRECCIÓN DE ADMINISTRACIÓN 10/2/2018 9/30/2018
2018 7/2/2018 30/09/2018 ESQUINERO DE MADERA CON ENTREPAÑOS COMISIÓN ESTATAL DE ENERGÍA DE BAJA CALIFORNIA CEE-OFIC-501-511001-184 4,662.00 SUBDIRECCIÓN DE ADMINISTRACIÓN 10/2/2018 9/30/2018
2018 7/2/2018 30/09/2018 MESA ESQUINERA PARA SALA COMISIÓN ESTATAL DE ENERGÍA DE BAJA CALIFORNIA CEE-OFIC-501-511001-185 6,438.00 SUBDIRECCIÓN DE ADMINISTRACIÓN 10/2/2018 9/30/2018
2018 7/2/2018 30/09/2018 CUADRO DECORATIVO 1 COMISIÓN ESTATAL DE ENERGÍA DE BAJA CALIFORNIA CEE-OFIC-501-511001-186 2,109.00 SUBDIRECCIÓN DE ADMINISTRACIÓN 10/2/2018 9/30/2018
2018 7/2/2018 30/09/2018 CUADRO DECORATIVO 2 COMISIÓN ESTATAL DE ENERGÍA DE BAJA CALIFORNIA CEE-OFIC-501-511001-187 2,331.00 SUBDIRECCIÓN DE ADMINISTRACIÓN 10/2/2018 9/30/2018
2018 7/2/2018 30/09/2018 CUADRO DECORATIVO 3 COMISIÓN ESTATAL DE ENERGÍA DE BAJA CALIFORNIA CEE-OFIC-501-511001-188 1,776.00 SUBDIRECCIÓN DE ADMINISTRACIÓN 10/2/2018 9/30/2018
2018 7/2/2018 30/09/2018 PERSIANA SHUTTER DE MADERA COLOR CHOCOLATE COMISIÓN ESTATAL DE ENERGÍA DE BAJA CALIFORNIA CEE-OFIC-501-511001-189 13,875.00 SUBDIRECCIÓN DE ADMINISTRACIÓN 10/2/2018 9/30/2018
2018 7/2/2018 30/09/2018 MESA DE JUNTAS COLOR MAHOGANY TIPO RACETRACK 96"X43" COMISIÓN ESTATAL DE ENERGÍA DE BAJA CALIFORNIA CEE-OFIC-501-511001-19 4,214.48 SUBDIRECCIÓN DE ADMINISTRACIÓN 10/2/2018 9/30/2018
2018 7/2/2018 30/09/2018 REPISAS DE MADERA EN ALDER CON ENTREPAÑOS PARA AREA DE CAFETERIA COMISIÓN ESTATAL DE ENERGÍA DE BAJA CALIFORNIA CEE-OFIC-501-511001-190 12,876.00 SUBDIRECCIÓN DE ADMINISTRACIÓN 10/2/2018 9/30/2018
2018 7/2/2018 30/09/2018 TRINCHADOR COLOR CHOCOLATE PARA SALA DE JUNTAS( CAFETERIA) COMISIÓN ESTATAL DE ENERGÍA DE BAJA CALIFORNIA CEE-OFIC-501-511001-191 9,879.00 SUBDIRECCIÓN DE ADMINISTRACIÓN 10/2/2018 9/30/2018
2018 7/2/2018 30/09/2018 COJINES DECORATIVOS PARA SALA COMISIÓN ESTATAL DE ENERGÍA DE BAJA CALIFORNIA CEE-OFIC-501-511001-192 444.00 SUBDIRECCIÓN DE ADMINISTRACIÓN 10/2/2018 9/30/2018
2018 7/2/2018 30/09/2018 SILLA DE RECEPCION COMISIÓN ESTATAL DE ENERGÍA DE BAJA CALIFORNIA CEE-OFIC-501-511001-197 2,220.00 SUBDIRECCIÓN DE ADMINISTRACIÓN 10/2/2018 9/30/2018
2018 7/2/2018 30/09/2018 2 MODULOS TIPO RIVETIER / RACK COMISIÓN ESTATAL DE ENERGÍA DE BAJA CALIFORNIA CEE-OFIC-501-511001-198 13,999.32 SUBDIRECCIÓN DE ADMINISTRACIÓN 10/2/2018 9/30/2018
2018 7/2/2018 30/09/2018 EXTENSIONES PARA MUEBLES COMISIÓN ESTATAL DE ENERGÍA DE BAJA CALIFORNIA CEE-OFIC-501-511001-199 5,508.76 SUBDIRECCIÓN DE ADMINISTRACIÓN 10/2/2018 9/30/2018
2018 7/2/2018 30/09/2018 EXTENSIONES PARA MUEBLES COMISIÓN ESTATAL DE ENERGÍA DE BAJA CALIFORNIA CEE-OFIC-501-511001-200 5,508.76 SUBDIRECCIÓN DE ADMINISTRACIÓN 10/2/2018 9/30/2018
2018 7/2/2018 30/09/2018 SILLA DE TRABAJO COMISIÓN ESTATAL DE ENERGÍA DE BAJA CALIFORNIA CEE-OFIC-501-511001-201 1,136.12 SUBDIRECCIÓN DE ADMINISTRACIÓN 10/2/2018 9/30/2018
2018 7/2/2018 30/09/2018 SILLA DE TRABAJO COMISIÓN ESTATAL DE ENERGÍA DE BAJA CALIFORNIA CEE-OFIC-501-511001-202 1,136.12 SUBDIRECCIÓN DE ADMINISTRACIÓN 10/2/2018 9/30/2018
2018 7/2/2018 30/09/2018 SILLA DE TRABAJO COMISIÓN ESTATAL DE ENERGÍA DE BAJA CALIFORNIA CEE-OFIC-501-511001-203 1,136.12 SUBDIRECCIÓN DE ADMINISTRACIÓN 10/2/2018 9/30/2018
2018 7/2/2018 30/09/2018 SILLA DE OFICINA COMISIÓN ESTATAL DE ENERGÍA DE BAJA CALIFORNIA CEE-OFIC-501-511001-204 1,717.62 SUBDIRECCIÓN DE ADMINISTRACIÓN 10/2/2018 9/30/2018
2018 7/2/2018 30/09/2018 SILLON EJECUTIVO TAPIZADO EN PIEL, RESPALDO MEDIANO, NEUMATICO, DESCANSA BRAZOS COMISIÓN ESTATAL DE ENERGÍA DE BAJA CALIFORNIA CEE-OFIC-501-511001-211 1,535.57 SUBDIRECCIÓN DE ADMINISTRACIÓN 10/2/2018 9/30/2018
2018 7/2/2018 30/09/2018 SILLON EJECUTIVO TAPIZADO EN PIEL, RESPALDO MEDIANO, NEUMATICO, DESCANSA BRAZOS COMISIÓN ESTATAL DE ENERGÍA DE BAJA CALIFORNIA CEE-OFIC-501-511001-212 1,535.57 SUBDIRECCIÓN DE ADMINISTRACIÓN 10/2/2018 9/30/2018
2018 7/2/2018 30/09/2018 SILLA DE VISITA FIJA ASIENTO Y RESPALDO ACOJINADO TAPIZADO EN PIEL BASE DE CUATRO PATAS COMISIÓN ESTATAL DE ENERGÍA DE BAJA CALIFORNIA CEE-OFIC-501-511001-213 1,296.71 SUBDIRECCIÓN DE ADMINISTRACIÓN 10/2/2018 9/30/2018
2018 7/2/2018 30/09/2018 SILLA DE VISITA FIJA ASIENTO Y RESPALDO ACOJINADO TAPIZADO EN PIEL BASE DE CUATRO PATAS COMISIÓN ESTATAL DE ENERGÍA DE BAJA CALIFORNIA CEE-OFIC-501-511001-214 1,296.71 SUBDIRECCIÓN DE ADMINISTRACIÓN 10/2/2018 9/30/2018
2018 7/2/2018 30/09/2018 SILLA DE VISITA FIJA ASIENTO Y RESPALDO ACOJINADO TAPIZADO EN PIEL BASE DE CUATRO PATAS COMISIÓN ESTATAL DE ENERGÍA DE BAJA CALIFORNIA CEE-OFIC-501-511001-215 1,296.71 SUBDIRECCIÓN DE ADMINISTRACIÓN 10/2/2018 9/30/2018
2018 7/2/2018 30/09/2018 SILLA DE VISITA FIJA ASIENTO Y RESPALDO ACOJINADO TAPIZADO EN PIEL BASE DE CUATRO PATAS COMISIÓN ESTATAL DE ENERGÍA DE BAJA CALIFORNIA CEE-OFIC-501-511001-216 1,296.71 SUBDIRECCIÓN DE ADMINISTRACIÓN 10/2/2018 9/30/2018
2018 7/2/2018 30/09/2018 SILLA EJECUTIVA DE ASIENTO ACOJINADO TAPIZADO EN TELA COLOR NEGRO, RESPALDO TIPO MALLA COMISIÓN ESTATAL DE ENERGÍA DE BAJA CALIFORNIA CEE-OFIC-501-511001-217 955.47 SUBDIRECCIÓN DE ADMINISTRACIÓN 10/2/2018 9/30/2018
2018 7/2/2018 30/09/2018 SILLA FIJA DE ESTRUCTURA DE TUBULAR SOLIDO CROMADO, ASIENTO Y RESPALDO DE PLASTICO COLOR NEGRO COMISIÓN ESTATAL DE ENERGÍA DE BAJA CALIFORNIA CEE-OFIC-501-511001-221 545.99 SUBDIRECCIÓN DE ADMINISTRACIÓN 10/2/2018 9/30/2018
2018 7/2/2018 30/09/2018 SILLA FIJA DE ESTRUCTURA DE TUBULAR SOLIDO CROMADO, ASIENTO Y RESPALDO DE PLASTICO COLOR NEGRO COMISIÓN ESTATAL DE ENERGÍA DE BAJA CALIFORNIA CEE-OFIC-501-511001-222 545.99 SUBDIRECCIÓN DE ADMINISTRACIÓN 10/2/2018 9/30/2018
2018 7/2/2018 30/09/2018 SILLA FIJA DE ESTRUCTURA DE TUBULAR SOLIDO CROMADO, ASIENTO Y RESPALDO DE PLASTICO COLOR NEGRO COMISIÓN ESTATAL DE ENERGÍA DE BAJA CALIFORNIA CEE-OFIC-501-511001-223 545.99 SUBDIRECCIÓN DE ADMINISTRACIÓN 10/2/2018 9/30/2018
2018 7/2/2018 30/09/2018 SILLA FIJA DE ESTRUCTURA DE TUBULAR SOLIDO CROMADO, ASIENTO Y RESPALDO DE PLASTICO COLOR NEGRO COMISIÓN ESTATAL DE ENERGÍA DE BAJA CALIFORNIA CEE-OFIC-501-511001-224 545.99 SUBDIRECCIÓN DE ADMINISTRACIÓN 10/2/2018 9/30/2018
2018 7/2/2018 30/09/2018 SILLA FIJA DE ESTRUCTURA DE TUBULAR SOLIDO CROMADO, ASIENTO Y RESPALDO DE PLASTICO COLOR NEGRO COMISIÓN ESTATAL DE ENERGÍA DE BAJA CALIFORNIA CEE-OFIC-501-511001-225 545.99 SUBDIRECCIÓN DE ADMINISTRACIÓN 10/2/2018 9/30/2018
2018 7/2/2018 30/09/2018 SILLA FIJA DE ESTRUCTURA DE TUBULAR SOLIDO CROMADO, ASIENTO Y RESPALDO DE PLASTICO COLOR NEGRO COMISIÓN ESTATAL DE ENERGÍA DE BAJA CALIFORNIA CEE-OFIC-501-511001-226 545.99 SUBDIRECCIÓN DE ADMINISTRACIÓN 10/2/2018 9/30/2018
2018 7/2/2018 30/09/2018 SILLA FIJA DE ESTRUCTURA DE TUBULAR SOLIDO CROMADO, ASIENTO Y RESPALDO DE PLASTICO COLOR NEGRO COMISIÓN ESTATAL DE ENERGÍA DE BAJA CALIFORNIA CEE-OFIC-501-511001-227 545.99 SUBDIRECCIÓN DE ADMINISTRACIÓN 10/2/2018 9/30/2018
2018 7/2/2018 30/09/2018 MODULO EJECUTIVO DE OFICINA A BASE DE PANELES CON MARCO METALICO COLOR GRIS, TELA AZUL COMISIÓN ESTATAL DE ENERGÍA DE BAJA CALIFORNIA CEE-OFIC-501-511001-229 19,425.24 SUBDIRECCIÓN DE ADMINISTRACIÓN 10/2/2018 9/30/2018
2018 7/2/2018 30/09/2018 MODULO EJECUTIVO DE OFICINA A BASE DE PANELES CON MARCO METALICO COLOR GRIS, TELA AZUL COMISIÓN ESTATAL DE ENERGÍA DE BAJA CALIFORNIA CEE-OFIC-501-511001-230 19,425.24 SUBDIRECCIÓN DE ADMINISTRACIÓN 10/2/2018 9/30/2018
2018 7/2/2018 30/09/2018 MODULO EJECUTIVO DE OFICINA A BASE DE PANELES CON MARCO METALICO COLOR GRIS, TELA AZUL COMISIÓN ESTATAL DE ENERGÍA DE BAJA CALIFORNIA CEE-OFIC-501-511001-231 19,425.24 SUBDIRECCIÓN DE ADMINISTRACIÓN 10/2/2018 9/30/2018
2018 7/2/2018 30/09/2018 MODULO SENCILLO DE TRABAJO EJECUTIVO, A BASE DE PANELES CON MARCO METALICO COLOR GRIS COMISIÓN ESTATAL DE ENERGÍA DE BAJA CALIFORNIA CEE-OFIC-501-511001-232 13,803.19 SUBDIRECCIÓN DE ADMINISTRACIÓN 10/2/2018 9/30/2018
2018 7/2/2018 30/09/2018 MODULO SENCILLO DE TRABAJO EJECUTIVO, A BASE DE PANELES CON MARCO METALICO COLOR GRIS COMISIÓN ESTATAL DE ENERGÍA DE BAJA CALIFORNIA CEE-OFIC-501-511001-233 13,803.19 SUBDIRECCIÓN DE ADMINISTRACIÓN 10/2/2018 9/30/2018
2018 7/2/2018 30/09/2018 PEDESTAL METALICO CON 3 CAJONES 2 UTILITARIOS Y 1 DE ARCHIVO MEDIDAS DE 22¨ COLOR GRIS COMISIÓN ESTATAL DE ENERGÍA DE BAJA CALIFORNIA CEE-OFIC-501-511001-234 2,036.30 SUBDIRECCIÓN DE ADMINISTRACIÓN 10/2/2018 9/30/2018
2018 7/2/2018 30/09/2018 PEDESTAL METALICO CON 3 CAJONES 2 UTILITARIOS Y 1 DE ARCHIVO MEDIDAS DE 22¨ COLOR GRIS COMISIÓN ESTATAL DE ENERGÍA DE BAJA CALIFORNIA CEE-OFIC-501-511001-235 2,036.30 SUBDIRECCIÓN DE ADMINISTRACIÓN 10/2/2018 9/30/2018
2018 7/2/2018 30/09/2018 PEDESTAL METALICO CON 3 CAJONES 2 UTILITARIOS Y 1 DE ARCHIVO MEDIDAS DE 22¨ COLOR GRIS COMISIÓN ESTATAL DE ENERGÍA DE BAJA CALIFORNIA CEE-OFIC-501-511001-236 2,036.30 SUBDIRECCIÓN DE ADMINISTRACIÓN 10/2/2018 9/30/2018
2018 7/2/2018 30/09/2018 PEDESTAL METALICO CON 3 CAJONES 2 UTILITARIOS Y 1 DE ARCHIVO MEDIDAS DE 22¨ COLOR GRIS COMISIÓN ESTATAL DE ENERGÍA DE BAJA CALIFORNIA CEE-OFIC-501-511001-237 2,036.30 SUBDIRECCIÓN DE ADMINISTRACIÓN 10/2/2018 9/30/2018
2018 7/2/2018 30/09/2018 PEDESTAL METALICO CON 3 CAJONES 2 UTILITARIOS Y 1 DE ARCHIVO MEDIDAS DE 22¨ COLOR GRIS COMISIÓN ESTATAL DE ENERGÍA DE BAJA CALIFORNIA CEE-OFIC-501-511001-238 2,036.30 SUBDIRECCIÓN DE ADMINISTRACIÓN 10/2/2018 9/30/2018
2018 7/2/2018 30/09/2018 PEDESTAL METALICO CON 3 CAJONES 2 UTILITARIOS Y 1 DE ARCHIVO MEDIDAS DE 22¨ COLOR GRIS COMISIÓN ESTATAL DE ENERGÍA DE BAJA CALIFORNIA CEE-OFIC-501-511001-239 2,036.30 SUBDIRECCIÓN DE ADMINISTRACIÓN 10/2/2018 9/30/2018
2018 7/2/2018 30/09/2018 PEDESTAL METALICO CON 3 CAJONES 2 UTILITARIOS Y 1 DE ARCHIVO MEDIDAS DE 22¨ COLOR GRIS COMISIÓN ESTATAL DE ENERGÍA DE BAJA CALIFORNIA CEE-OFIC-501-511001-240 2,036.30 SUBDIRECCIÓN DE ADMINISTRACIÓN 10/2/2018 9/30/2018
2018 7/2/2018 30/09/2018 MESA DE JUNTAS CON CUBIERTA TIPO RACETRACK CON MEDIDAS DE 96¨X42¨ COMISIÓN ESTATAL DE ENERGÍA DE BAJA CALIFORNIA CEE-OFIC-501-511001-241 3,769.48 SUBDIRECCIÓN DE ADMINISTRACIÓN 10/2/2018 9/30/2018
2018 7/2/2018 30/09/2018 SILLON EJECUTIVO TAPIZADO EN PIEL, RESPALDO ALTO, NEUMATICO, DESCANSA BRAZOS, BASE DE 5 PUNTAS COMISIÓN ESTATAL DE ENERGÍA DE BAJA CALIFORNIA CEE-OFIC-501-511001-242 3,207.64 SUBDIRECCIÓN DE ADMINISTRACIÓN 10/2/2018 9/30/2018
2018 7/2/2018 30/09/2018 SILLON EJECUTIVO TAPIZADO EN PIEL, RESPALDO MEDIANO, DESCANZA BRAZOS BASE DE 5 PUNTAS COMISIÓN ESTATAL DE ENERGÍA DE BAJA CALIFORNIA CEE-OFIC-501-511001-243 1,535.57 SUBDIRECCIÓN DE ADMINISTRACIÓN 10/2/2018 9/30/2018
2018 7/2/2018 30/09/2018 SILLON EJECUTIVO TAPIZADO EN PIEL, RESPALDO MEDIANO, DESCANZA BRAZOS BASE DE 5 PUNTAS COMISIÓN ESTATAL DE ENERGÍA DE BAJA CALIFORNIA CEE-OFIC-501-511001-244 1,535.57 SUBDIRECCIÓN DE ADMINISTRACIÓN 10/2/2018 9/30/2018
2018 7/2/2018 30/09/2018 SILLON DE VISITA FIJO CON ASIENTO Y RESPALDO TAPIZADOS EN PIEL BRAZOS ACOJINADOS COMISIÓN ESTATAL DE ENERGÍA DE BAJA CALIFORNIA CEE-OFIC-501-511001-245 2,764.02 SUBDIRECCIÓN DE ADMINISTRACIÓN 10/2/2018 9/30/2018
2018 7/2/2018 30/09/2018 SILLON DE VISITA FIJO CON ASIENTO Y RESPALDO TAPIZADOS EN PIEL BRAZOS ACOJINADOS COMISIÓN ESTATAL DE ENERGÍA DE BAJA CALIFORNIA CEE-OFIC-501-511001-246 2,764.02 SUBDIRECCIÓN DE ADMINISTRACIÓN 10/2/2018 9/30/2018
2018 7/2/2018 30/09/2018 SILLON DE VISITA FIJO CON ASIENTO Y RESPALDO TAPIZADO EN PIEL BASE 4 PATAS COMISIÓN ESTATAL DE ENERGÍA DE BAJA CALIFORNIA CEE-OFIC-501-511001-247 1,296.71 SUBDIRECCIÓN DE ADMINISTRACIÓN 10/2/2018 9/30/2018
2018 7/2/2018 30/09/2018 SILLON DE VISITA FIJO CON ASIENTO Y RESPALDO TAPIZADO EN PIEL BASE 4 PATAS COMISIÓN ESTATAL DE ENERGÍA DE BAJA CALIFORNIA CEE-OFIC-501-511001-248 1,296.71 SUBDIRECCIÓN DE ADMINISTRACIÓN 10/2/2018 9/30/2018
2018 7/2/2018 30/09/2018 SILLON DE VISITA FIJO CON ASIENTO Y RESPALDO TAPIZADO EN PIEL BASE 4 PATAS COMISIÓN ESTATAL DE ENERGÍA DE BAJA CALIFORNIA CEE-OFIC-501-511001-249 1,296.71 SUBDIRECCIÓN DE ADMINISTRACIÓN 10/2/2018 9/30/2018
2018 7/2/2018 30/09/2018 SILLON DE VISITA FIJO CON ASIENTO Y RESPALDO TAPIZADO EN PIEL BASE 4 PATAS COMISIÓN ESTATAL DE ENERGÍA DE BAJA CALIFORNIA CEE-OFIC-501-511001-250 1,296.71 SUBDIRECCIÓN DE ADMINISTRACIÓN 10/2/2018 9/30/2018
2018 7/2/2018 30/09/2018 SILLA EJECUTIVA DE ASIENTO ACOJINADO TAPIZADO EN TELA COLOR NEGRO, RESPALDO TIPO MALLA COMISIÓN ESTATAL DE ENERGÍA DE BAJA CALIFORNIA CEE-OFIC-501-511001-253 955.47 SUBDIRECCIÓN DE ADMINISTRACIÓN 10/2/2018 9/30/2018
2018 7/2/2018 30/09/2018 SILLA EJECUTIVA DE ASIENTO ACOJINADO TAPIZADO EN TELA COLOR NEGRO, RESPALDO TIPO MALLA COMISIÓN ESTATAL DE ENERGÍA DE BAJA CALIFORNIA CEE-OFIC-501-511001-254 955.47 SUBDIRECCIÓN DE ADMINISTRACIÓN 10/2/2018 9/30/2018
2018 7/2/2018 30/09/2018 SILLA SECRETARIAL DE ASIENTO ACOJINADO TAPIZADO EN TELA COLOR NEGRO COMISIÓN ESTATAL DE ENERGÍA DE BAJA CALIFORNIA CEE-OFIC-501-511001-255 887.21 SUBDIRECCIÓN DE ADMINISTRACIÓN 10/2/2018 9/30/2018
2018 7/2/2018 30/09/2018 SILLA SECRETARIAL DE ASIENTO ACOJINADO TAPIZADO EN TELA COLOR NEGRO COMISIÓN ESTATAL DE ENERGÍA DE BAJA CALIFORNIA CEE-OFIC-501-511001-256 887.21 SUBDIRECCIÓN DE ADMINISTRACIÓN 10/2/2018 9/30/2018
2018 7/2/2018 30/09/2018 SILLA SECRETARIAL DE ASIENTO ACOJINADO TAPIZADO EN TELA COLOR NEGRO COMISIÓN ESTATAL DE ENERGÍA DE BAJA CALIFORNIA CEE-OFIC-501-511001-257 887.21 SUBDIRECCIÓN DE ADMINISTRACIÓN 10/2/2018 9/30/2018
2018 7/2/2018 30/09/2018 SILLA SECRETARIAL DE ASIENTO ACOJINADO TAPIZADO EN TELA COLOR NEGRO COMISIÓN ESTATAL DE ENERGÍA DE BAJA CALIFORNIA CEE-OFIC-501-511001-258 887.21 SUBDIRECCIÓN DE ADMINISTRACIÓN 10/2/2018 9/30/2018
2018 7/2/2018 30/09/2018 SILLA SECRETARIAL DE ASIENTO ACOJINADO TAPIZADO EN TELA COLOR NEGRO COMISIÓN ESTATAL DE ENERGÍA DE BAJA CALIFORNIA CEE-OFIC-501-511001-259 887.21 SUBDIRECCIÓN DE ADMINISTRACIÓN 10/2/2018 9/30/2018
2018 7/2/2018 30/09/2018 MODULO SENCILLO DE TRABAJO EJECUTIVO, A BASE DE PANELES CON MARCO METALICO COLOR GRIS COMISIÓN ESTATAL DE ENERGÍA DE BAJA CALIFORNIA CEE-OFIC-501-511001-260 13,803.19 SUBDIRECCIÓN DE ADMINISTRACIÓN 10/2/2018 9/30/2018
2018 7/2/2018 30/09/2018 MODULO SENCILLO DE TRABAJO EJECUTIVO, A BASE DE PANELES CON MARCO METALICO COLOR GRIS COMISIÓN ESTATAL DE ENERGÍA DE BAJA CALIFORNIA CEE-OFIC-501-511001-261 13,803.19 SUBDIRECCIÓN DE ADMINISTRACIÓN 10/2/2018 9/30/2018
2018 7/2/2018 30/09/2018 MESA SALA DE JUNTAS CUBIERTA RECTANGULAR ACABADA EN MADERA LAMINADA COMISIÓN ESTATAL DE ENERGÍA DE BAJA CALIFORNIA CEE-OFIC-501-511001-262 23,338.36 SUBDIRECCIÓN DE ADMINISTRACIÓN 10/2/2018 9/30/2018
2018 7/2/2018 30/09/2018 MESA DE MADERA COMISIÓN ESTATAL DE ENERGÍA DE BAJA CALIFORNIA CEE-OFIC-501-511001-263 3,574.00 SUBDIRECCIÓN DE ADMINISTRACIÓN 10/2/2018 9/30/2018
2018 7/2/2018 30/09/2018 SILLON DE MADERA COMISIÓN ESTATAL DE ENERGÍA DE BAJA CALIFORNIA CEE-OFIC-501-511001-264 330.00 SUBDIRECCIÓN DE ADMINISTRACIÓN 10/2/2018 9/30/2018
2018 7/2/2018 30/09/2018 SILLON DE MADERA COMISIÓN ESTATAL DE ENERGÍA DE BAJA CALIFORNIA CEE-OFIC-501-511001-265 330.00 SUBDIRECCIÓN DE ADMINISTRACIÓN 10/2/2018 9/30/2018
2018 7/2/2018 30/09/2018 SILLON DE MADERA COMISIÓN ESTATAL DE ENERGÍA DE BAJA CALIFORNIA CEE-OFIC-501-511001-266 330.00 SUBDIRECCIÓN DE ADMINISTRACIÓN 10/2/2018 9/30/2018
2018 7/2/2018 30/09/2018 SILLON DE MADERA COMISIÓN ESTATAL DE ENERGÍA DE BAJA CALIFORNIA CEE-OFIC-501-511001-267 330.00 SUBDIRECCIÓN DE ADMINISTRACIÓN 10/2/2018 9/30/2018
2018 7/2/2018 30/09/2018 SILLON DE MADERA COMISIÓN ESTATAL DE ENERGÍA DE BAJA CALIFORNIA CEE-OFIC-501-511001-268 330.00 SUBDIRECCIÓN DE ADMINISTRACIÓN 10/2/2018 9/30/2018
2018 7/2/2018 30/09/2018 SILLON DE MADERA COMISIÓN ESTATAL DE ENERGÍA DE BAJA CALIFORNIA CEE-OFIC-501-511001-271 440.00 SUBDIRECCIÓN DE ADMINISTRACIÓN 10/2/2018 9/30/2018
2018 7/2/2018 30/09/2018 SILLON DE MADERA COMISIÓN ESTATAL DE ENERGÍA DE BAJA CALIFORNIA CEE-OFIC-501-511001-272 440.00 SUBDIRECCIÓN DE ADMINISTRACIÓN 10/2/2018 9/30/2018
2018 7/2/2018 30/09/2018 GABINETE DE CAOBA COMISIÓN ESTATAL DE ENERGÍA DE BAJA CALIFORNIA CEE-OFIC-501-511001-276 3,667.00 SUBDIRECCIÓN DE ADMINISTRACIÓN 10/2/2018 9/30/2018
2018 7/2/2018 30/09/2018 GABINETE DE CAOBA COMISIÓN ESTATAL DE ENERGÍA DE BAJA CALIFORNIA CEE-OFIC-501-511001-277 3,667.00 SUBDIRECCIÓN DE ADMINISTRACIÓN 10/2/2018 9/30/2018
2018 7/2/2018 30/09/2018 SILLA GERENCIAL NEGRA COMISIÓN ESTATAL DE ENERGÍA DE BAJA CALIFORNIA CEE-OFIC-501-511001-278 1,999.00 SUBDIRECCIÓN DE ADMINISTRACIÓN 10/2/2018 9/30/2018
2018 7/2/2018 30/09/2018 SILLA GERENCIAL NEGRA COMISIÓN ESTATAL DE ENERGÍA DE BAJA CALIFORNIA CEE-OFIC-501-511001-279 1,999.00 SUBDIRECCIÓN DE ADMINISTRACIÓN 10/2/2018 9/30/2018
2018 7/2/2018 30/09/2018 SILLA DE VISITA TAPIZADA EN PIEL, CON BRAZOS, ESTRUCTURA METALICA TIPO TRINEO. COMISIÓN ESTATAL DE ENERGÍA DE BAJA CALIFORNIA CEE-OFIC-501-511001-28 1,553.54 SUBDIRECCIÓN DE ADMINISTRACIÓN 10/2/2018 9/30/2018
2018 7/2/2018 30/09/2018 SILLA GERENCIAL NEGRA COMISIÓN ESTATAL DE ENERGÍA DE BAJA CALIFORNIA CEE-OFIC-501-511001-280 1,999.00 SUBDIRECCIÓN DE ADMINISTRACIÓN 10/2/2018 9/30/2018
2018 7/2/2018 30/09/2018 SILLA GERENCIAL NEGRA COMISIÓN ESTATAL DE ENERGÍA DE BAJA CALIFORNIA CEE-OFIC-501-511001-281 1,999.00 SUBDIRECCIÓN DE ADMINISTRACIÓN 10/2/2018 9/30/2018
2018 7/2/2018 30/09/2018 SILLA GERENCIAL NEGRA COMISIÓN ESTATAL DE ENERGÍA DE BAJA CALIFORNIA CEE-OFIC-501-511001-282 1,999.00 SUBDIRECCIÓN DE ADMINISTRACIÓN 10/2/2018 9/30/2018
2018 7/2/2018 30/09/2018 SILLA GERENCIAL NEGRA COMISIÓN ESTATAL DE ENERGÍA DE BAJA CALIFORNIA CEE-OFIC-501-511001-283 1,999.00 SUBDIRECCIÓN DE ADMINISTRACIÓN 10/2/2018 9/30/2018
2018 7/2/2018 30/09/2018 SILLA GERENCIAL NEGRA COMISIÓN ESTATAL DE ENERGÍA DE BAJA CALIFORNIA CEE-OFIC-501-511001-284 1,999.00 SUBDIRECCIÓN DE ADMINISTRACIÓN 10/2/2018 9/30/2018
2018 7/2/2018 30/09/2018 SILLA GERENCIAL NEGRA COMISIÓN ESTATAL DE ENERGÍA DE BAJA CALIFORNIA CEE-OFIC-501-511001-285 1,999.00 SUBDIRECCIÓN DE ADMINISTRACIÓN 10/2/2018 9/30/2018
2018 7/2/2018 30/09/2018 SILLA GERENCIAL NEGRA COMISIÓN ESTATAL DE ENERGÍA DE BAJA CALIFORNIA CEE-OFIC-501-511001-286 1,999.00 SUBDIRECCIÓN DE ADMINISTRACIÓN 10/2/2018 9/30/2018
2018 7/2/2018 30/09/2018 SILLA GERENCIAL NEGRA COMISIÓN ESTATAL DE ENERGÍA DE BAJA CALIFORNIA CEE-OFIC-501-511001-287 1,999.00 SUBDIRECCIÓN DE ADMINISTRACIÓN 10/2/2018 9/30/2018
2018 7/2/2018 30/09/2018 SILLA GERENCIAL NEGRA COMISIÓN ESTATAL DE ENERGÍA DE BAJA CALIFORNIA CEE-OFIC-501-511001-288 1,999.00 SUBDIRECCIÓN DE ADMINISTRACIÓN 10/2/2018 9/30/2018
2018 7/2/2018 30/09/2018 SILLA GERENCIAL NEGRA COMISIÓN ESTATAL DE ENERGÍA DE BAJA CALIFORNIA CEE-OFIC-501-511001-289 1,999.00 SUBDIRECCIÓN DE ADMINISTRACIÓN 10/2/2018 9/30/2018
2018 7/2/2018 30/09/2018 SILLA DE VISITA TAPIZADA EN PIEL, CON BRAZOS, ESTRUCTURA METALICA TIPO TRINEO. COMISIÓN ESTATAL DE ENERGÍA DE BAJA CALIFORNIA CEE-OFIC-501-511001-29 1,553.54 SUBDIRECCIÓN DE ADMINISTRACIÓN 10/2/2018 9/30/2018
2018 7/2/2018 30/09/2018 SILLA GERENCIAL NEGRA COMISIÓN ESTATAL DE ENERGÍA DE BAJA CALIFORNIA CEE-OFIC-501-511001-290 1,999.00 SUBDIRECCIÓN DE ADMINISTRACIÓN 10/2/2018 9/30/2018
2018 7/2/2018 30/09/2018 ESCRITORIO EJECUTIVO COMISIÓN ESTATAL DE ENERGÍA DE BAJA CALIFORNIA CEE-OFIC-501-511001-291 5,649.00 SUBDIRECCIÓN DE ADMINISTRACIÓN 10/2/2018 9/30/2018
2018 7/2/2018 30/09/2018 ESCRITORIO EJECUTIVO COMISIÓN ESTATAL DE ENERGÍA DE BAJA CALIFORNIA CEE-OFIC-501-511001-292 5,649.00 SUBDIRECCIÓN DE ADMINISTRACIÓN 10/2/2018 9/30/2018
2018 7/2/2018 30/09/2018 ESCRITORIO L CAFÉ OSCURO COMISIÓN ESTATAL DE ENERGÍA DE BAJA CALIFORNIA CEE-OFIC-501-511001-293 1,922.22 SUBDIRECCIÓN DE ADMINISTRACIÓN 10/2/2018 9/30/2018
2018 7/2/2018 30/09/2018 ESCRITORIO L CAFÉ OSCURO COMISIÓN ESTATAL DE ENERGÍA DE BAJA CALIFORNIA CEE-OFIC-501-511001-294 1,922.22 SUBDIRECCIÓN DE ADMINISTRACIÓN 10/2/2018 9/30/2018
2018 7/2/2018 30/09/2018 SILLA TELA NEGRA RESPALDO MALLA COMISIÓN ESTATAL DE ENERGÍA DE BAJA CALIFORNIA CEE-OFIC-501-511001-295 1,612.00 SUBDIRECCIÓN DE ADMINISTRACIÓN 10/2/2018 9/30/2018
2018 7/2/2018 30/09/2018 ESCRITORIO CHOCOLATE COMISIÓN ESTATAL DE ENERGÍA DE BAJA CALIFORNIA CEE-OFIC-501-511001-296 5,566.97 SUBDIRECCIÓN DE ADMINISTRACIÓN 10/2/2018 9/30/2018
2018 7/2/2018 30/09/2018 GABINETE DOS PUERTAS COLOR CHOCOLATE COMISIÓN ESTATAL DE ENERGÍA DE BAJA CALIFORNIA CEE-OFIC-501-511001-297 2,930.89 SUBDIRECCIÓN DE ADMINISTRACIÓN 10/2/2018 9/30/2018
2018 7/2/2018 30/09/2018 GABINETE DOS PUERTAS COLOR CHOCOLATE COMISIÓN ESTATAL DE ENERGÍA DE BAJA CALIFORNIA CEE-OFIC-501-511001-298 2,930.89 SUBDIRECCIÓN DE ADMINISTRACIÓN 10/2/2018 9/30/2018
2018 7/2/2018 30/09/2018 SILLA GERENCIAL NEGRA COMISIÓN ESTATAL DE ENERGÍA DE BAJA CALIFORNIA CEE-OFIC-501-511001-299 2,249.00 SUBDIRECCIÓN DE ADMINISTRACIÓN 10/2/2018 9/30/2018
2018 7/2/2018 30/09/2018 SILLA DE VISITA TAPIZADA EN PIEL, CON BRAZOS, ESTRUCTURA METALICA TIPO TRINEO. COMISIÓN ESTATAL DE ENERGÍA DE BAJA CALIFORNIA CEE-OFIC-501-511001-30 1,553.54 SUBDIRECCIÓN DE ADMINISTRACIÓN 10/2/2018 9/30/2018
2018 7/2/2018 30/09/2018 SILLA DE OFICINA TAPIZADA EN MALLA COMISIÓN ESTATAL DE ENERGÍA DE BAJA CALIFORNIA CEE-OFIC-501-511001-300 1,840.00 SUBDIRECCIÓN DE ADMINISTRACIÓN 10/2/2018 9/30/2018
2018 7/2/2018 30/09/2018 SILLA GERENCIAL NEGRA COMISIÓN ESTATAL DE ENERGÍA DE BAJA CALIFORNIA CEE-OFIC-501-511001-301 1,737.00 SUBDIRECCIÓN DE ADMINISTRACIÓN 10/2/2018 9/30/2018
2018 7/2/2018 30/09/2018 SILLA GERENCIAL NEGRA COMISIÓN ESTATAL DE ENERGÍA DE BAJA CALIFORNIA CEE-OFIC-501-511001-302 1,737.00 SUBDIRECCIÓN DE ADMINISTRACIÓN 10/2/2018 9/30/2018
2018 7/2/2018 30/09/2018 ESCRITORIO SECRETARIAL CON PEDESTAL COMISIÓN ESTATAL DE ENERGÍA DE BAJA CALIFORNIA CEE-OFIC-501-511001-303 10,645.50 SUBDIRECCIÓN DE ADMINISTRACIÓN 10/2/2018 9/30/2018
2018 7/2/2018 30/09/2018 ESCRITORIO SECRETARIAL CON PEDESTAL COMISIÓN ESTATAL DE ENERGÍA DE BAJA CALIFORNIA CEE-OFIC-501-511001-304 10,645.50 SUBDIRECCIÓN DE ADMINISTRACIÓN 10/2/2018 9/30/2018
2018 7/2/2018 30/09/2018 ESCRITORIO SECRETARIAL CON PEDESTAL COMISIÓN ESTATAL DE ENERGÍA DE BAJA CALIFORNIA CEE-OFIC-501-511001-305 10,645.50 SUBDIRECCIÓN DE ADMINISTRACIÓN 10/2/2018 9/30/2018
2018 7/2/2018 30/09/2018 ESCRITORIO SECRETARIAL CON PEDESTAL COMISIÓN ESTATAL DE ENERGÍA DE BAJA CALIFORNIA CEE-OFIC-501-511001-306 10,645.50 SUBDIRECCIÓN DE ADMINISTRACIÓN 10/2/2018 9/30/2018
2018 7/2/2018 30/09/2018 ESCRITORIO DE TRABAJO CHOCOLATE COMISIÓN ESTATAL DE ENERGÍA DE BAJA CALIFORNIA CEE-OFIC-501-511001-307 15,225.00 SUBDIRECCIÓN DE ADMINISTRACIÓN 10/2/2018 9/30/2018
2018 7/2/2018 30/09/2018 ESCRITORIO EJECUTIVO VISTAS CROMADAS CON RETORNO COMISIÓN ESTATAL DE ENERGÍA DE BAJA CALIFORNIA CEE-OFIC-501-511001-308 8,729.00 SUBDIRECCIÓN DE ADMINISTRACIÓN 10/2/2018 9/30/2018
2018 7/2/2018 30/09/2018 SILLA GERENCIAL NEGRA COMISIÓN ESTATAL DE ENERGÍA DE BAJA CALIFORNIA CEE-OFIC-501-511001-309 2,199.00 SUBDIRECCIÓN DE ADMINISTRACIÓN 10/2/2018 9/30/2018
2018 7/2/2018 30/09/2018 SILLA DE VISITA TAPIZADA EN PIEL, CON BRAZOS, ESTRUCTURA METALICA TIPO TRINEO. COMISIÓN ESTATAL DE ENERGÍA DE BAJA CALIFORNIA CEE-OFIC-501-511001-31 1,553.54 SUBDIRECCIÓN DE ADMINISTRACIÓN 10/2/2018 9/30/2018
2018 7/2/2018 30/09/2018 SILLA GERENCIAL NEGRA COMISIÓN ESTATAL DE ENERGÍA DE BAJA CALIFORNIA CEE-OFIC-501-511001-310 2,199.00 SUBDIRECCIÓN DE ADMINISTRACIÓN 10/2/2018 9/30/2018
2018 7/2/2018 30/09/2018 SILLA GERENCIAL NEGRA COMISIÓN ESTATAL DE ENERGÍA DE BAJA CALIFORNIA CEE-OFIC-501-511001-311 2,199.00 SUBDIRECCIÓN DE ADMINISTRACIÓN 10/2/2018 9/30/2018
2018 7/2/2018 30/09/2018 LIBRERO CHERRY CON PUERTAS COMISIÓN ESTATAL DE ENERGÍA DE BAJA CALIFORNIA CEE-OFIC-501-511001-312 3,599.00 SUBDIRECCIÓN DE ADMINISTRACIÓN 10/2/2018 9/30/2018
2018 7/2/2018 30/09/2018 ARCHIVERO COLOR CHOCOLATE, DOS PUERTAS, COMPLEMENTO DE ESCRITORIO COMISIÓN ESTATAL DE ENERGÍA DE BAJA CALIFORNIA CEE-OFIC-501-511001-313 1,449.00 SUBDIRECCIÓN DE ADMINISTRACIÓN 10/2/2018 9/30/2018
2018 7/2/2018 30/09/2018 ESCRITORIO EJECUTIVO VISTAS CROMADAS C/RETORNO MOVIL COMISIÓN ESTATAL DE ENERGÍA DE BAJA CALIFORNIA CEE-OFIC-501-511001-314 7,354.40 SUBDIRECCIÓN DE ADMINISTRACIÓN 10/2/2018 9/30/2018
2018 7/2/2018 30/09/2018 ARCHIVERO COLOR NEGRO, 4 GAVETAS TAMAÑO OFICIO COMISIÓN ESTATAL DE ENERGÍA DE BAJA CALIFORNIA CEE-OFIC-501-511001-315 3,779.00 SUBDIRECCIÓN DE ADMINISTRACIÓN 10/2/2018 9/30/2018
2018 7/2/2018 30/09/2018 LIBRERO COLOR CHOCOLATE, 8 ESPACIOS COMISIÓN ESTATAL DE ENERGÍA DE BAJA CALIFORNIA CEE-OFIC-501-511001-316 1,995.00 SUBDIRECCIÓN DE ADMINISTRACIÓN 10/2/2018 9/30/2018
2018 7/2/2018 30/09/2018 SILLA GERENCIAL NEGRA COMISIÓN ESTATAL DE ENERGÍA DE BAJA CALIFORNIA CEE-OFIC-501-511001-317 2,351.90 SUBDIRECCIÓN DE ADMINISTRACIÓN 10/2/2018 9/30/2018
2018 7/2/2018 30/09/2018 GABINETE MULTIUSOS COLOR CAFÉ CHOCOLATE COMISIÓN ESTATAL DE ENERGÍA DE BAJA CALIFORNIA CEE-OFIC-501-511001-318 3,258.24 SUBDIRECCIÓN DE ADMINISTRACIÓN 10/2/2018 9/30/2018
2018 7/2/2018 30/09/2018 GABINETE MULTIUSOS COLOR CAFÉ CHOCOLATE COMISIÓN ESTATAL DE ENERGÍA DE BAJA CALIFORNIA CEE-OFIC-501-511001-319 3,258.24 SUBDIRECCIÓN DE ADMINISTRACIÓN 10/2/2018 9/30/2018
2018 7/2/2018 30/09/2018 SILLA FIJA DE VISITA TIPO TRINEO COMISIÓN ESTATAL DE ENERGÍA DE BAJA CALIFORNIA CEE-OFIC-501-511001-32 1,001.18 SUBDIRECCIÓN DE ADMINISTRACIÓN 10/2/2018 9/30/2018
2018 7/2/2018 30/09/2018 SILLA FIJA DE VISITA TIPO TRINEO COMISIÓN ESTATAL DE ENERGÍA DE BAJA CALIFORNIA CEE-OFIC-501-511001-33 1,001.18 SUBDIRECCIÓN DE ADMINISTRACIÓN 10/2/2018 9/30/2018
2018 7/2/2018 30/09/2018 LIBRERO DE MADERA CON 5 ENTREPAÑOS, MEDIDA DE 32X14X65" COLOR ELECCION COMISIÓN ESTATAL DE ENERGÍA DE BAJA CALIFORNIA CEE-OFIC-501-511001-37 1,861.86 SUBDIRECCIÓN DE ADMINISTRACIÓN 10/2/2018 9/30/2018
2018 7/2/2018 30/09/2018 PUENTE DE MADERA CON MEDIDA DE 48X24X29.5" EN COLOR A ELECCION COMISIÓN ESTATAL DE ENERGÍA DE BAJA CALIFORNIA CEE-OFIC-501-511001-5 1,111.11 SUBDIRECCIÓN DE ADMINISTRACIÓN 10/2/2018 9/30/2018
2018 7/2/2018 30/09/2018 PEDESTAL DE 3 CAJONES 2 UTILITARIOS Y UNO DE ARCHIVO DE MADERA EN COLOR A ELECCION COMISIÓN ESTATAL DE ENERGÍA DE BAJA CALIFORNIA CEE-OFIC-501-511001-66 2,042.04 SUBDIRECCIÓN DE ADMINISTRACIÓN 10/2/2018 9/30/2018
2018 7/2/2018 30/09/2018 CABINET STORAGE 35X22X36 MAHOGANY COMISIÓN ESTATAL DE ENERGÍA DE BAJA CALIFORNIA CEE-OFIC-501-511001-8 3,022.27 SUBDIRECCIÓN DE ADMINISTRACIÓN 10/2/2018 9/30/2018
2018 7/2/2018 30/09/2018 ESCRITORIO PARA RECEPCION DE MADERA CON MEDIDA DE 71X30X40" EN COLOR ELECCION. COMISIÓN ESTATAL DE ENERGÍA DE BAJA CALIFORNIA CEE-OFIC-501-511001-83 3,243.24 SUBDIRECCIÓN DE ADMINISTRACIÓN 10/2/2018 9/30/2018
2018 7/2/2018 30/09/2018 RETORNO DE MADERA PARA RECEPCION CON MEDIDA DE 42X24X41" EN COLOR A ELECCION COMISIÓN ESTATAL DE ENERGÍA DE BAJA CALIFORNIA CEE-OFIC-501-511001-84 1,591.59 SUBDIRECCIÓN DE ADMINISTRACIÓN 10/2/2018 9/30/2018
2018 7/2/2018 30/09/2018 PEDESTAL DE MADERA DE 3/4 PARA INSTALARSE EN ESCRITORIO O CREDENZA COMISIÓN ESTATAL DE ENERGÍA DE BAJA CALIFORNIA CEE-OFIC-501-511001-88 1,311.71 SUBDIRECCIÓN DE ADMINISTRACIÓN 10/2/2018 9/30/2018
2018 7/2/2018 30/09/2018 SILLA DE VISITA TAPIZADA EN PIEL, CON BRAZOS, ESTRUCTURA METALICA TIPO TRINEO. COMISIÓN ESTATAL DE ENERGÍA DE BAJA CALIFORNIA CEE-OFIC-501-511001-9 1,342.95 SUBDIRECCIÓN DE ADMINISTRACIÓN 10/2/2018 9/30/2018
2018 7/2/2018 30/09/2018 1 SCANER KODAK i1220 PLUS SHEETFED SCANNER COMISIÓN ESTATAL DE ENERGÍA DE BAJA CALIFORNIA CEE-OFIC-501-515001-126 13,875.89 SUBDIRECCIÓN DE ADMINISTRACIÓN 10/2/2018 9/30/2018
2018 7/2/2018 30/09/2018 CAMARA 12.1 MP SONY COMISIÓN ESTATAL DE ENERGÍA DE BAJA CALIFORNIA CEE-OFIC-501-523001-122 1,699.00 SUBDIRECCIÓN DE ADMINISTRACIÓN 10/2/2018 9/30/2018
2018 7/2/2018 30/09/2018 MESA REDONDA DE MADERA PARA JUNTAS CON MEDIDA DE 47" DE DIAMETRO EN COLOR A ELECCION. COMISIÓN ESTATAL DE ENERGÍA DE BAJA CALIFORNIA CEE-OFIC-501-53100-15 2,012.01 SUBDIRECCIÓN DE ADMINISTRACIÓN 10/2/2018 9/30/2018
2018 7/2/2018 30/09/2018 TELEFONO ALAMBRICO PANASONIC COMISIÓN ESTATAL DE ENERGÍA DE BAJA CALIFORNIA CEE-OFIC-501-565001-116 329.00 SUBDIRECCIÓN DE ADMINISTRACIÓN 10/2/2018 9/30/2018
2018 7/2/2018 30/09/2018 SILLA SECRETARIAL NEUMATICA BASE DE CINCO PUNTAS CON RUEDAS Y DESCANSA BRAZOS TAPIZADA EN TELA COMISIÓN ESTATAL DE ENERGÍA DE BAJA CALIFORNIA CEE-OFIC-502-511001-1 1,061.86 SUBDIRECCIÓN DE ADMINISTRACIÓN 10/2/2018 9/30/2018
2018 7/2/2018 30/09/2018 SILLON EJECUTIVO DE PIEL COMISIÓN ESTATAL DE ENERGÍA DE BAJA CALIFORNIA CEE-OFIC-502-511001-117 2,199.00 SUBDIRECCIÓN DE ADMINISTRACIÓN 10/2/2018 9/30/2018
2018 7/2/2018 30/09/2018 SILLA DE TRABAJO MALLA COMISIÓN ESTATAL DE ENERGÍA DE BAJA CALIFORNIA CEE-OFIC-502-511001-21 765.00 SUBDIRECCIÓN DE ADMINISTRACIÓN 10/2/2018 9/30/2018
2018 7/2/2018 30/09/2018 SILLA DE TRABAJO MALLA COMISIÓN ESTATAL DE ENERGÍA DE BAJA CALIFORNIA CEE-OFIC-502-511001-25 765.00 SUBDIRECCIÓN DE ADMINISTRACIÓN 10/2/2018 9/30/2018
2018 7/2/2018 30/09/2018 SILLA SECRETARIAL NEUMATICA BASE DE CINCO PUNTAS CON RUEDAS Y DESCANSA BRAZOS TAPIZADA EN TELA COMISIÓN ESTATAL DE ENERGÍA DE BAJA CALIFORNIA CEE-OFIC-502-511001-34 1,061.86 SUBDIRECCIÓN DE ADMINISTRACIÓN 10/2/2018 9/30/2018
2018 7/2/2018 30/09/2018 SILLA SECRETARIAL NEUMATICA BASE DE CINCO PUNTAS CON RUEDAS Y DESCANSA BRAZOS TAPIZADA EN TELA COMISIÓN ESTATAL DE ENERGÍA DE BAJA CALIFORNIA CEE-OFIC-502-511001-39 1,061.86 SUBDIRECCIÓN DE ADMINISTRACIÓN 10/2/2018 9/30/2018
2018 7/2/2018 30/09/2018 MESA DE TRABAJO PARA EVENTOS COMISIÓN ESTATAL DE ENERGÍA DE BAJA CALIFORNIA CEE-OFIC-502-511001-50 1,189.00 SUBDIRECCIÓN DE ADMINISTRACIÓN 10/2/2018 9/30/2018
2018 7/2/2018 30/09/2018 SILLA FIJA DE VISITA BASE TIPO TRINEO CON ESTRUCTURA METALICA Y TAPIZADO EN TELA CON DESCANSABRAZOS COMISIÓN ESTATAL DE ENERGÍA DE BAJA CALIFORNIA CEE-OFIC-502-511001-58 905.71 SUBDIRECCIÓN DE ADMINISTRACIÓN 10/2/2018 9/30/2018
2018 7/2/2018 30/09/2018 ARCHIVERO LATERAL DE 2 CAJONES CON MEDIDA DE 31X22X23"EN COLOR MAHOGANY COMISIÓN ESTATAL DE ENERGÍA DE BAJA CALIFORNIA CEE-OFIC-502-511001-62 3,123.12 SUBDIRECCIÓN DE ADMINISTRACIÓN 10/2/2018 9/30/2018
2018 7/2/2018 30/09/2018 ENCUADERNADORA MANUAL GBC COMISIÓN ESTATAL DE ENERGÍA DE BAJA CALIFORNIA CEE-OFIC-502-511001-68 1,599.00 SUBDIRECCIÓN DE ADMINISTRACIÓN 10/2/2018 9/30/2018
2018 7/2/2018 30/09/2018 MESA P/IMPRESORA 3 REPISAS COLOR GRIS C/RUEDAS COMISIÓN ESTATAL DE ENERGÍA DE BAJA CALIFORNIA CEE-OFIC-502-511001-71 849.00 SUBDIRECCIÓN DE ADMINISTRACIÓN 10/2/2018 9/30/2018
2018 7/2/2018 30/09/2018 MULTIFUNCIONAL LASER COMISIÓN ESTATAL DE ENERGÍA DE BAJA CALIFORNIA CEE-OFIC-502-515001-119 6,929.00 SUBDIRECCIÓN DE ADMINISTRACIÓN 10/2/2018 9/30/2018
2018 7/2/2018 30/09/2018 CAMARA SONY COMISIÓN ESTATAL DE ENERGÍA DE BAJA CALIFORNIA CEE-OFIC-502-523001-120 3,752.91 SUBDIRECCIÓN DE ADMINISTRACIÓN 10/2/2018 9/30/2018
2018 7/2/2018 30/09/2018 LIBRERO 5 REPISAS COLOR CEREZO COMISIÓN ESTATAL DE ENERGÍA DE BAJA CALIFORNIA CEE-OFIC-503-511001-107 899.90 SUBDIRECCIÓN DE ADMINISTRACIÓN 10/2/2018 9/30/2018
2018 7/2/2018 30/09/2018 LIBRERO 5 REPISAS COLOR CEREZO COMISIÓN ESTATAL DE ENERGÍA DE BAJA CALIFORNIA CEE-OFIC-503-511001-108 899.90 SUBDIRECCIÓN DE ADMINISTRACIÓN 10/2/2018 9/30/2018
2018 7/2/2018 30/09/2018 7 ANAQUELES PARA BODEGA DE SUBESTACION EN PARQUE EOLICO COMISIÓN ESTATAL DE ENERGÍA DE BAJA CALIFORNIA CEE-OFIC-503-511001-113 9,877.85 SUBDIRECCIÓN DE ADMINISTRACIÓN 10/2/2018 9/30/2018
2018 7/2/2018 30/09/2018 SILLA SECRETARIAL NEUMATICA BASE DE CINCO PUNTAS CON RUEDAS Y DESCANSA BRAZOS TAPIZADA EN TELA COMISIÓN ESTATAL DE ENERGÍA DE BAJA CALIFORNIA CEE-OFIC-503-511001-20 1,061.86 SUBDIRECCIÓN DE ADMINISTRACIÓN 10/2/2018 9/30/2018
2018 7/2/2018 30/09/2018 PEDESTAL DE MADERA DE 3/4 PARA INSTALARSE EN ESCRITORIO O CREDENZA COMISIÓN ESTATAL DE ENERGÍA DE BAJA CALIFORNIA CEE-OFIC-503-511001-26 1,311.71 SUBDIRECCIÓN DE ADMINISTRACIÓN 10/2/2018 9/30/2018
2018 7/2/2018 30/09/2018 SILLA DE TRABAJO MALLA COMISIÓN ESTATAL DE ENERGÍA DE BAJA CALIFORNIA CEE-OFIC-503-511001-27 765.00 SUBDIRECCIÓN DE ADMINISTRACIÓN 10/2/2018 9/30/2018
2018 7/2/2018 30/09/2018 ESCRITORIO DE MADERA SIN CAJONES DE MEDIDA 60X30X29.5" EN COLOR A ELECCION COMISIÓN ESTATAL DE ENERGÍA DE BAJA CALIFORNIA CEE-OFIC-503-511001-35 1,780.17 SUBDIRECCIÓN DE ADMINISTRACIÓN 10/2/2018 9/30/2018
2018 7/2/2018 30/09/2018 RETORNO DE MADERA SIN CAJONES CON MEDIDA DE 35X23" EN COLOR MAHOGANY COMISIÓN ESTATAL DE ENERGÍA DE BAJA CALIFORNIA CEE-OFIC-503-511001-38 1,058.06 SUBDIRECCIÓN DE ADMINISTRACIÓN 10/2/2018 9/30/2018
2018 7/2/2018 30/09/2018 SILLA SECRETARIAL NEUMATICA BASE DE CINCO PUNTAS CON RUEDAS Y DESCANSA BRAZOS TAPIZADA EN TELA COMISIÓN ESTATAL DE ENERGÍA DE BAJA CALIFORNIA CEE-OFIC-503-511001-45 1,061.86 SUBDIRECCIÓN DE ADMINISTRACIÓN 10/2/2018 9/30/2018
2018 7/2/2018 30/09/2018 SILLA PLEGABLE ACOJINADA COMISIÓN ESTATAL DE ENERGÍA DE BAJA CALIFORNIA CEE-OFIC-503-511001-51 249.00 SUBDIRECCIÓN DE ADMINISTRACIÓN 10/2/2018 9/30/2018
2018 7/2/2018 30/09/2018 SILLA PLEGABLE ACOJINADA COMISIÓN ESTATAL DE ENERGÍA DE BAJA CALIFORNIA CEE-OFIC-503-511001-52 249.00 SUBDIRECCIÓN DE ADMINISTRACIÓN 10/2/2018 9/30/2018
2018 7/2/2018 30/09/2018 SILLA PLEGABLE ACOJINADA COMISIÓN ESTATAL DE ENERGÍA DE BAJA CALIFORNIA CEE-OFIC-503-511001-53 249.00 SUBDIRECCIÓN DE ADMINISTRACIÓN 10/2/2018 9/30/2018
2018 7/2/2018 30/09/2018 SILLA PLEGABLE ACOJINADA COMISIÓN ESTATAL DE ENERGÍA DE BAJA CALIFORNIA CEE-OFIC-503-511001-54 249.00 SUBDIRECCIÓN DE ADMINISTRACIÓN 10/2/2018 9/30/2018
2018 7/2/2018 30/09/2018 SILLA PLEGABLE ACOJINADA COMISIÓN ESTATAL DE ENERGÍA DE BAJA CALIFORNIA CEE-OFIC-503-511001-55 249.00 SUBDIRECCIÓN DE ADMINISTRACIÓN 10/2/2018 9/30/2018
2018 7/2/2018 30/09/2018 SILLA PLEGABLE ACOJINADA COMISIÓN ESTATAL DE ENERGÍA DE BAJA CALIFORNIA CEE-OFIC-503-511001-56 249.00 SUBDIRECCIÓN DE ADMINISTRACIÓN 10/2/2018 9/30/2018
2018 7/2/2018 30/09/2018 SILLA SECRETARIAL NEUMATICA BASE DE CINCO PUNTAS CON RUEDAS Y DESCANSA BRAZOS TAPIZADA EN TELA COMISIÓN ESTATAL DE ENERGÍA DE BAJA CALIFORNIA CEE-OFIC-503-511001-57 1,061.86 SUBDIRECCIÓN DE ADMINISTRACIÓN 10/2/2018 9/30/2018
2018 7/2/2018 30/09/2018 SILLA FIJA DE VISITA BASE TIPO TRINEO CON ESTRUCTURA METALICA Y TAPIZADO EN TELA CON DESCANSABRAZOS COMISIÓN ESTATAL DE ENERGÍA DE BAJA CALIFORNIA CEE-OFIC-503-511001-59 905.71 SUBDIRECCIÓN DE ADMINISTRACIÓN 10/2/2018 9/30/2018
2018 7/2/2018 30/09/2018 SILLA FIJA DE VISITA BASE TIPO TRINEO CON ESTRUCTURA METALICA Y TAPIZADO EN TELA CON DESCANSABRAZOS COMISIÓN ESTATAL DE ENERGÍA DE BAJA CALIFORNIA CEE-OFIC-503-511001-60 905.71 SUBDIRECCIÓN DE ADMINISTRACIÓN 10/2/2018 9/30/2018
2018 7/2/2018 30/09/2018 GABINETE UNIVERSAL 2 PUERTAS 4 ENTREPAÑOS CON LLAVE, METALICO COLOR GRIS,MEDIDAS DE 36"W X 18"D X 72"H COMISIÓN ESTATAL DE ENERGÍA DE BAJA CALIFORNIA CEE-OFIC-503-511001-61 3,755.63 SUBDIRECCIÓN DE ADMINISTRACIÓN 10/2/2018 9/30/2018
2018 7/2/2018 30/09/2018 ESCRITORIO DE MADERA SIN CAJONES DE MEDIDA 66X30X29.5" EN COLOR CHERRY, MARCA OFFICE SOURCE COMISIÓN ESTATAL DE ENERGÍA DE BAJA CALIFORNIA CEE-OFIC-503-511001-63 1,936.33 SUBDIRECCIÓN DE ADMINISTRACIÓN 10/2/2018 9/30/2018
2018 7/2/2018 30/09/2018 ESCRITORIO DE MADERA SIN CAJONES DE MEDIDA 66X30X29.5" EN COLOR CHERRY, MARCA OFFICE SOURCE COMISIÓN ESTATAL DE ENERGÍA DE BAJA CALIFORNIA CEE-OFIC-503-511001-64 1,936.33 SUBDIRECCIÓN DE ADMINISTRACIÓN 10/2/2018 9/30/2018
2018 7/2/2018 30/09/2018 5 AEROGENERADORES COMISIÓN ESTATAL DE ENERGÍA DE BAJA CALIFORNIA CEE-PER-507-57100 248,538,627.51 SUBDIRECCIÓN DE ADMINISTRACIÓN 10/2/2018 9/30/2018
2018 7/2/2018 30/09/2018 COROLLA COMISIÓN ESTATAL DE ENERGÍA DE BAJA CALIFORNIA CEE-TRAN-501-541001-10 244,625.00 SUBDIRECCIÓN DE ADMINISTRACIÓN 10/2/2018 9/30/2018
2018 7/2/2018 30/09/2018 COROLLA COMISIÓN ESTATAL DE ENERGÍA DE BAJA CALIFORNIA CEE-TRAN-501-541001-11 244,625.00 SUBDIRECCIÓN DE ADMINISTRACIÓN 10/2/2018 9/30/2018
2018 7/2/2018 30/09/2018 NISSAN SENTRA EMOTION 2.0 CVT COMISIÓN ESTATAL DE ENERGÍA DE BAJA CALIFORNIA CEE-TRAN-501-541001-3 222,600.00 SUBDIRECCIÓN DE ADMINISTRACIÓN 10/2/2018 9/30/2018
2018 7/2/2018 30/09/2018 HONDA PILOT LX 6 2011 COMISIÓN ESTATAL DE ENERGÍA DE BAJA CALIFORNIA CEE-TRAN-501-541001-6 437,500.00 SUBDIRECCIÓN DE ADMINISTRACIÓN 10/2/2018 9/30/2018
2018 7/2/2018 30/09/2018 RANGER COMISIÓN ESTATAL DE ENERGÍA DE BAJA CALIFORNIA CEE-TRAN-501-541001-7 286,520.00 SUBDIRECCIÓN DE ADMINISTRACIÓN 10/2/2018 9/30/2018
2018 7/2/2018 30/09/2018 RANGER COMISIÓN ESTATAL DE ENERGÍA DE BAJA CALIFORNIA CEE-TRAN-501-541001-8 286,520.00 SUBDIRECCIÓN DE ADMINISTRACIÓN 10/2/2018 9/30/2018
2018 7/2/2018 30/09/2018 HIGLANDER COMISIÓN ESTATAL DE ENERGÍA DE BAJA CALIFORNIA CEE-TRAN-501-541001-9 540,300.00 SUBDIRECCIÓN DE ADMINISTRACIÓN 10/2/2018 9/30/2018
2018 7/2/2018 30/09/2018 PICK UP DODGE RAM 2500 SLT 4X4 TRANS AUT. MOTOR 5.7 V-8 ASIENTOS TELA COMISIÓN ESTATAL DE ENERGÍA DE BAJA CALIFORNIA CEE-TRAN-503-541001-5 315,000.00 SUBDIRECCIÓN DE ADMINISTRACIÓN 10/2/2018 9/30/2018